ECMWFFLT1_850_thetae_000.txt.gz
Theta_e
321 319 319 320 317 316 315 313 314 317 316 317 320 320 319 319 319 319 318 317 317 317 318 319 320 322 322 322 323 323 323 323 323 323 322 323 323 321 320 320 320 321 322 322 322 322 322 323 322 321 320 320 320 320 319 317 317 318 320 324 327 328 328
320 318 319 318 316 316 318 318 318 318 317 317 317 316 315 314 315 316 317 315 315 315 316 316 316 318 320 319 319 320 320 319 320 322 322 321 321 320 319 320 320 321 321 321 321 322 323 323 324 324 323 323 322 322 323 320 316 317 318 320 323 324 324
318 318 319 317 316 318 319 320 318 315 313 312 311 310 310 309 309 310 311 311 312 313 312 311 308 308 310 310 309 311 310 308 311 316 318 318 318 317 316 318 319 319 319 319 320 320 321 321 322 323 323 323 322 321 322 321 319 318 317 317 318 318 316
317 318 319 316 316 318 318 319 318 316 314 310 308 308 307 307 307 307 307 308 310 312 311 310 306 304 304 304 302 303 304 302 302 305 307 308 309 309 310 314 316 317 316 316 317 317 317 318 318 317 317 318 319 318 318 319 319 319 317 315 313 313 312
316 317 318 317 317 318 318 318 318 318 316 311 308 308 307 307 307 307 306 306 308 309 310 311 310 307 305 305 304 303 303 303 303 303 303 303 303 304 304 306 308 310 309 308 308 309 309 310 311 312 314 316 317 317 317 317 316 315 314 313 313 313 313
315 317 317 316 318 318 317 318 318 317 317 314 312 310 308 308 307 307 307 306 306 307 308 310 310 308 306 305 305 305 305 305 305 304 305 304 304 304 303 303 304 305 304 304 303 304 305 305 309 313 315 315 315 314 314 315 315 314 314 315 316 318 319
313 315 317 316 317 318 317 318 318 318 317 316 315 312 309 309 310 309 307 306 306 306 306 306 308 311 310 307 305 305 305 305 305 305 305 305 304 304 303 303 304 303 303 303 304 306 308 309 311 313 312 310 311 313 314 316 315 314 315 318 319 319 321
312 312 316 316 316 317 317 317 317 318 317 317 316 314 311 311 311 309 307 307 307 306 306 306 306 309 311 308 306 306 305 305 305 305 305 305 304 304 303 303 303 303 303 303 303 304 306 307 307 308 308 309 311 312 313 315 316 315 315 317 319 319 320
313 312 315 316 315 317 317 315 316 317 317 317 316 314 311 311 310 309 307 307 307 306 306 306 306 306 307 307 306 305 305 305 305 305 305 305 304 304 304 303 304 303 303 303 303 303 303 303 303 303 306 309 311 311 312 314 315 316 316 315 318 319 319
316 314 316 317 315 316 317 316 315 317 317 317 316 314 311 310 310 309 308 308 307 307 307 306 307 306 306 306 306 305 305 305 305 305 305 305 304 304 304 304 304 303 303 303 303 302 302 302 302 302 303 304 307 310 313 313 312 314 315 315 316 317 315
318 316 316 317 316 316 317 317 316 316 317 318 317 316 313 311 310 310 309 308 307 308 307 307 306 306 307 307 306 306 306 304 305 305 305 305 305 304 304 304 304 304 303 303 303 303 302 302 302 302 302 302 303 305 308 308 306 309 314 316 316 315 312
319 319 317 318 318 317 317 317 317 315 317 318 318 319 316 313 312 311 310 309 308 308 308 308 307 306 308 308 307 307 306 305 307 306 305 305 305 305 305 305 305 305 304 304 304 304 303 303 303 302 302 302 302 302 303 303 302 304 309 313 314 313 309
320 320 319 318 319 319 318 318 318 317 317 318 319 320 318 315 314 313 311 310 309 309 308 308 308 307 308 308 307 308 307 306 309 308 305 305 305 305 306 306 305 305 305 304 305 305 305 306 306 305 305 305 306 305 305 304 304 303 304 306 307 307 305
320 320 319 319 319 320 319 317 317 317 318 318 318 319 319 318 317 316 315 314 313 312 310 309 308 307 308 308 307 309 308 307 309 309 307 306 305 305 305 306 307 306 305 305 304 304 306 307 307 306 306 307 308 309 308 307 306 305 304 304 304 303 302
319 318 318 318 319 320 318 317 317 318 318 318 318 319 319 319 319 318 317 317 316 315 314 312 310 308 309 309 309 310 309 307 308 310 309 306 306 307 305 305 306 307 305 305 304 305 306 306 306 306 306 307 307 307 307 307 307 306 305 304 304 304 303
319 320 319 319 320 319 318 318 318 317 317 318 318 318 319 318 318 318 318 318 318 318 317 315 314 311 310 310 310 310 309 308 308 309 309 307 307 309 307 305 306 306 305 305 304 304 305 305 305 306 306 306 305 305 305 306 307 307 307 307 307 308 307
321 321 320 319 320 319 318 319 318 317 317 318 317 318 318 318 318 318 318 318 318 318 318 317 316 315 313 311 311 311 309 308 308 309 308 307 308 308 308 307 306 306 306 305 304 304 305 307 307 306 305 304 304 305 305 306 306 307 307 307 306 306 307
322 320 318 319 319 318 318 318 318 318 318 317 318 318 318 318 318 318 318 318 318 318 318 318 317 316 315 313 312 312 311 309 309 309 309 308 308 308 308 307 306 306 306 305 304 304 306 306 305 304 303 302 303 303 304 304 304 304 305 304 303 303 304
323 321 319 318 318 318 318 319 318 318 318 317 317 317 317 317 318 318 318 318 318 318 318 318 318 317 316 315 313 313 312 311 310 310 309 309 309 308 308 307 306 305 305 304 304 304 304 303 302 302 302 301 301 301 302 302 301 303 304 304 304 303 304
323 321 319 318 318 318 318 319 319 318 317 316 316 316 316 316 317 316 317 317 318 319 318 318 318 318 317 315 315 314 313 312 311 311 310 310 309 308 308 307 307 305 305 304 304 303 303 303 301 301 300 299 299 298 299 298 298 300 301 303 304 304 304
316 314 313 314 313 314 315 316 317 316 317 317 317 317 316 316 316 316 316 317 318 318 319 318 318 318 317 316 315 315 314 313 312 311 310 310 309 308 308 307 306 305 305 304 304 303 303 302 300 299 299 298 298 297 297 296 295 296 298 301 303 304 305
310 309 310 311 311 312 312 312 313 313 315 316 316 316 316 317 318 317 316 317 317 318 318 319 319 318 318 317 316 315 314 314 313 312 311 310 309 308 307 306 305 305 305 305 304 303 303 302 301 299 298 297 297 296 296 296 295 295 295 297 299 301 302
309 309 311 313 312 312 312 313 313 313 314 315 314 314 315 317 318 317 316 317 318 318 318 318 319 319 318 317 316 315 315 314 314 312 311 311 310 308 307 306 305 305 305 305 305 304 304 304 303 300 299 298 297 296 296 296 295 295 294 295 295 296 297
309 310 311 312 312 313 314 315 315 315 315 316 315 315 316 316 316 316 317 318 319 319 319 319 319 318 318 318 316 316 315 314 313 312 311 310 309 307 306 305 304 304 305 305 306 306 305 305 304 302 300 299 298 298 297 296 296 295 295 296 296 295 296
308 309 310 310 310 311 312 313 314 314 315 315 315 315 315 315 315 317 319 319 320 320 320 319 317 317 318 318 317 315 314 313 313 311 310 308 307 306 305 305 304 304 305 305 305 304 302 302 303 302 300 299 299 297 296 296 296 296 296 296 296 296 296
309 309 309 309 307 306 307 310 313 313 315 315 314 314 314 313 312 313 317 320 320 320 320 319 318 317 318 317 316 315 314 313 312 311 309 307 306 305 305 305 305 304 304 304 304 302 301 300 301 300 300 299 297 296 295 295 295 295 295 296 297 297 297
309 309 308 307 305 305 306 309 311 312 314 313 313 313 313 313 310 308 312 318 319 319 320 319 318 318 318 317 316 315 314 313 312 310 308 306 306 306 306 306 305 304 303 303 302 302 301 300 300 300 299 298 297 296 295 294 294 294 295 297 298 299 299
308 307 306 306 306 306 307 308 309 311 313 313 313 313 313 314 312 309 310 315 318 318 319 318 318 318 317 317 316 314 313 313 311 308 307 306 306 306 305 304 304 304 303 302 301 301 300 300 299 299 298 297 296 295 294 294 294 294 295 297 298 298 299
308 307 306 306 306 307 308 308 309 310 312 313 313 313 312 313 314 312 311 311 313 316 318 317 317 317 316 316 315 313 313 312 310 308 307 305 305 305 304 303 303 303 302 301 301 301 300 300 299 298 297 296 295 295 295 295 295 295 296 297 298 298 298
308 308 307 306 307 307 306 306 307 309 311 312 313 313 313 312 313 313 314 311 310 314 316 316 316 316 315 315 314 312 312 311 309 306 305 304 304 304 303 303 302 302 301 301 301 301 301 300 299 298 297 296 296 295 295 295 295 296 297 297 297 297 297
308 308 307 307 307 306 305 305 306 308 309 311 312 312 313 313 312 313 313 312 311 313 315 315 315 315 314 314 313 311 311 310 307 304 304 304 303 303 302 302 301 301 301 301 300 300 300 299 299 298 297 297 296 296 296 296 296 296 296 296 296 296 296
307 307 307 308 307 306 304 304 306 307 309 310 312 312 312 312 312 312 312 311 311 313 313 313 314 314 314 314 313 310 308 307 305 303 303 303 302 302 302 301 301 301 301 301 300 300 299 299 298 298 297 297 296 296 296 296 296 295 295 295 295 295 294
307 307 308 308 308 307 305 303 303 306 308 309 311 311 311 311 312 312 311 310 311 312 312 312 312 312 312 312 312 309 305 304 304 303 302 302 301 301 301 301 301 301 300 300 299 299 298 298 298 297 297 297 297 296 296 296 295 295 295 294 294 294 293
306 306 307 307 308 308 305 302 302 305 307 309 310 310 311 311 311 311 311 310 310 310 309 310 310 310 310 310 309 307 303 301 301 300 300 300 300 300 300 299 299 298 298 298 298 298 298 297 297 297 297 297 297 296 296 295 295 294 294 293 293 293 293
305 305 306 306 306 308 307 304 303 305 307 308 310 310 310 311 311 311 310 310 310 309 308 308 308 308 308 308 306 305 303 300 298 298 298 299 300 299 298 298 298 298 298 298 297 298 298 297 297 297 296 296 295 295 294 294 293 293 292 292 292 292 292
304 304 305 305 305 306 307 307 306 306 308 309 310 310 310 311 311 311 311 310 309 308 307 307 306 305 304 303 303 302 300 298 296 295 295 296 296 295 295 297 298 297 297 297 297 297 297 296 296 295 295 294 294 293 293 292 292 292 292 292 292 292 292
304 303 304 305 305 305 307 307 308 308 309 308 309 310 311 311 311 311 310 310 308 307 306 305 304 302 299 297 297 296 295 293 293 292 292 293 293 292 293 294 295 295 295 295 296 296 295 295 295 294 293 293 293 292 292 292 292 292 292 292 292 292 292

ECMWFFLT1_850_thetae_003.txt.gz
Theta_e
315 315 315 315 314 309 307 307 308 309 312 312 312 314 317 318 317 317 317 317 318 320 321 321 321 321 322 323 323 323 323 322 321 322 322 323 324 323 322 322 321 320 321 321 321 322 322 321 321 320 320 320 319 319 320 321 322 321 318 317 318 321 325
318 317 317 317 314 310 309 309 309 310 312 312 310 311 314 317 316 316 316 317 317 317 318 318 320 321 323 322 323 322 322 321 321 322 322 322 322 321 320 320 320 320 320 321 321 321 321 322 322 321 322 322 321 321 322 320 320 321 319 318 318 321 323
320 317 317 315 313 313 312 310 309 308 307 308 307 307 310 314 317 317 315 316 315 313 313 314 314 316 318 319 320 322 322 321 320 321 321 320 320 319 318 319 320 320 320 320 320 320 320 320 320 320 320 320 318 316 317 317 316 318 320 319 319 320 319
318 315 314 313 313 315 314 312 309 307 307 307 307 306 306 309 313 314 313 311 310 308 308 309 307 307 309 310 311 314 316 316 318 320 320 320 319 318 317 317 318 318 318 319 320 318 318 318 317 315 312 313 312 311 311 313 313 314 316 316 316 316 316
315 313 313 313 314 316 314 313 311 308 307 307 307 307 307 306 307 308 308 308 307 306 306 305 305 305 305 304 304 305 306 307 310 313 313 313 313 311 310 311 314 316 317 317 315 313 312 312 310 308 308 310 311 311 311 313 313 313 314 315 315 315 316
312 312 314 312 313 314 313 313 312 309 309 308 307 307 307 307 307 306 306 306 306 306 306 306 306 305 305 305 305 305 305 304 305 306 305 306 305 305 305 305 308 309 310 310 308 305 305 305 305 305 308 310 309 309 313 314 314 315 315 315 317 318 318
311 314 314 312 314 313 312 313 313 312 310 307 307 307 307 307 307 307 306 306 306 306 306 306 306 306 306 306 306 306 306 306 305 305 305 305 305 305 305 304 304 305 304 304 304 304 304 304 304 305 306 306 306 307 312 315 315 315 316 315 317 319 319
312 314 313 312 314 312 310 312 313 313 311 309 309 308 307 307 307 307 307 306 307 306 306 307 307 307 306 306 306 306 306 305 305 305 305 305 305 305 304 304 304 304 303 303 303 303 303 303 303 303 303 303 304 305 309 314 316 315 315 315 316 318 320
313 314 313 312 314 311 310 311 312 314 313 312 312 311 309 308 307 307 307 307 307 306 306 306 307 307 306 306 306 305 305 305 305 305 305 305 305 304 304 304 303 304 303 303 303 303 303 303 302 302 302 302 303 303 304 309 314 315 315 315 316 317 319
314 315 313 312 313 313 311 310 312 315 315 313 314 314 311 309 308 308 308 307 307 307 306 306 306 306 306 306 306 305 305 305 305 305 305 304 304 304 304 304 304 304 304 303 303 303 303 303 302 302 302 302 302 303 303 303 306 309 311 313 314 315 316
315 316 315 314 314 315 313 312 313 315 316 315 316 316 313 311 309 309 308 308 308 307 307 306 306 306 306 306 306 305 305 305 305 305 305 305 305 304 305 305 305 305 305 304 304 303 303 302 302 302 302 302 302 303 303 302 303 304 305 308 311 312 311
316 316 317 315 314 316 316 314 314 315 316 316 317 317 315 314 311 310 309 309 308 308 308 308 307 307 307 307 306 306 306 305 305 305 305 305 305 305 306 306 306 306 306 306 305 305 304 303 303 304 304 304 304 304 304 304 303 303 303 304 306 307 306
317 316 317 317 315 316 317 316 315 315 315 316 317 317 316 316 315 314 312 311 311 310 309 308 308 307 307 307 307 306 306 306 306 306 306 306 306 306 306 306 307 307 307 307 307 307 307 306 306 306 306 306 306 306 306 305 305 304 304 303 303 303 303
318 316 317 318 316 316 317 317 317 316 316 315 317 317 317 317 317 317 315 315 315 314 312 311 309 308 307 308 307 307 307 307 307 307 307 307 307 306 306 307 307 307 306 306 307 307 307 308 306 306 306 306 306 306 306 305 305 305 305 305 304 303 302
320 318 318 318 318 316 317 319 318 317 317 316 316 317 317 318 318 318 317 317 317 317 316 315 314 311 309 308 308 308 308 308 308 308 308 308 307 307 307 307 307 307 306 306 306 305 306 306 305 305 306 307 306 306 305 305 305 305 305 305 304 303 302
320 320 320 319 319 317 317 318 318 318 318 317 318 318 318 319 319 318 318 318 318 318 318 318 317 316 314 312 311 310 310 309 308 308 308 308 308 308 307 307 307 307 307 307 306 306 306 306 305 306 306 306 305 304 304 304 305 305 305 304 303 302 301
320 321 320 320 320 319 318 318 317 317 318 319 319 319 319 319 319 319 319 318 318 318 318 318 318 318 317 317 315 314 313 312 310 308 308 308 308 308 308 308 308 307 307 307 306 306 307 307 307 306 306 305 304 304 303 303 303 304 304 303 302 301 300
321 320 319 319 319 319 319 319 317 317 318 319 319 319 319 318 318 319 319 318 318 318 318 318 318 318 318 318 317 316 315 314 313 311 309 309 308 308 308 308 308 308 307 307 306 306 306 306 306 306 305 304 305 304 304 302 302 302 302 301 300 300 300
321 320 319 319 319 319 319 319 318 317 318 319 318 318 318 317 318 318 318 318 318 317 317 318 319 319 318 318 318 317 316 315 314 313 312 310 309 309 308 308 308 308 307 307 306 306 306 305 305 305 304 304 305 305 304 303 301 300 299 298 298 299 299
322 322 321 320 319 319 320 319 319 318 318 317 317 317 317 317 317 318 318 317 316 315 315 316 318 319 319 318 318 318 317 316 315 315 314 312 310 309 309 309 308 308 307 307 306 306 305 305 304 303 303 303 303 303 303 303 301 299 298 297 297 297 297
322 321 321 320 320 320 320 320 319 319 319 318 318 317 317 317 317 317 316 314 313 313 314 315 316 318 319 318 318 318 318 316 316 315 314 313 311 310 310 309 309 308 308 307 307 306 305 304 303 302 302 302 301 301 301 300 300 299 298 298 297 297 297
320 319 318 317 316 317 318 318 317 317 317 317 317 317 317 316 316 316 315 313 313 313 315 315 316 317 318 318 318 318 318 317 317 315 314 313 312 311 311 310 309 309 308 307 306 306 305 304 304 303 303 303 302 301 300 299 299 298 298 298 297 297 297
316 315 313 312 312 313 313 314 313 312 312 313 314 315 315 315 314 314 314 313 313 313 314 315 316 317 317 317 318 318 318 317 317 316 315 314 313 312 311 311 310 309 308 307 306 306 306 305 305 305 305 304 303 301 300 299 298 298 297 297 297 296 296
311 311 310 311 311 311 311 311 311 310 311 312 312 313 315 315 315 314 314 314 314 313 313 314 316 317 317 318 318 318 318 318 317 316 315 314 313 313 312 312 311 309 308 307 306 306 306 306 307 306 304 303 303 302 300 299 298 297 296 296 296 295 295
310 310 310 311 311 312 312 312 312 311 312 313 313 314 315 316 316 316 316 316 315 314 315 317 318 318 318 318 318 318 318 317 316 316 315 315 314 313 313 312 311 310 309 307 306 306 305 306 306 305 303 302 302 301 300 298 298 297 296 295 295 294 295
309 309 310 310 311 312 312 311 312 312 313 314 315 315 315 315 315 315 316 316 316 316 317 318 318 318 319 319 318 318 317 317 316 316 315 314 314 313 313 312 311 310 309 307 306 305 305 305 305 304 302 301 301 300 299 298 297 296 295 295 294 295 295
309 309 309 309 308 307 307 307 309 311 312 313 314 314 314 313 313 313 313 313 313 312 313 314 314 316 319 320 319 318 317 317 316 315 314 314 313 313 312 312 310 308 307 306 306 305 304 304 303 302 301 300 300 299 299 298 297 296 295 295 294 295 295
309 309 308 306 304 303 304 304 305 307 307 309 310 310 310 311 312 312 312 311 309 307 307 309 312 315 318 319 319 318 317 316 315 314 313 313 313 312 311 310 308 306 306 306 305 304 303 303 302 301 300 300 300 299 299 298 297 296 296 295 295 295 295
308 308 306 304 303 303 303 302 302 303 304 306 308 308 308 309 311 312 312 312 312 309 305 304 307 312 315 317 318 318 317 315 314 313 312 312 312 311 309 307 306 306 306 306 305 303 302 302 301 301 301 301 300 300 299 298 297 297 296 296 296 296 296
307 307 306 305 304 303 302 301 301 302 303 306 309 310 310 310 311 311 312 312 312 311 308 305 307 311 315 316 316 316 316 314 312 311 311 310 309 308 307 306 306 306 305 305 304 303 302 301 301 301 301 301 300 300 299 298 298 297 297 296 296 296 296
308 307 307 306 305 304 303 301 301 301 303 306 308 310 311 312 312 312 312 310 311 311 310 309 309 311 314 315 315 314 313 312 311 310 309 308 306 305 306 306 305 304 304 305 304 303 302 301 301 301 300 300 300 299 299 298 298 297 296 296 296 296 296
307 307 307 307 306 305 304 303 302 301 302 304 308 310 311 311 311 312 311 311 310 310 310 309 308 309 311 313 314 314 313 311 310 309 308 307 306 305 305 304 303 303 303 303 303 302 302 301 301 300 300 300 299 299 298 297 297 297 297 297 297 296 296
306 306 306 306 306 306 306 305 304 302 300 302 306 309 310 310 311 311 311 311 311 311 310 309 307 308 309 310 311 313 313 312 310 309 308 306 305 305 304 302 302 302 302 302 302 301 301 301 301 300 299 299 298 298 297 297 297 297 296 296 296 295 295
305 305 306 306 307 307 307 306 305 303 300 301 304 308 309 309 310 311 311 311 311 311 311 309 308 308 308 308 309 311 312 312 311 309 308 305 304 304 303 302 301 300 300 300 300 300 299 299 299 298 298 298 298 297 297 297 296 296 295 295 294 294 293
305 304 305 305 306 307 307 307 306 305 302 302 304 306 307 308 309 310 310 310 311 311 311 310 309 308 307 306 308 308 309 310 310 309 307 304 303 303 302 301 300 299 299 299 299 298 298 298 298 297 297 297 296 296 295 295 294 294 294 293 293 293 293
305 304 304 304 305 306 306 306 305 305 304 304 305 306 307 308 309 309 310 310 311 311 310 310 309 308 306 306 306 307 307 308 308 306 304 302 301 300 301 301 300 300 300 299 298 297 297 296 296 295 295 295 295 294 294 294 293 293 293 293 292 292 292
304 304 304 304 304 304 304 304 304 305 305 305 307 308 309 309 309 310 310 310 310 310 310 310 308 307 306 306 306 306 306 305 305 304 303 301 300 299 299 299 299 298 297 296 295 294 294 294 294 294 294 294 294 294 293 293 292 292 292 292 292 292 292

ECMWFFLT1_850_thetae_006.txt.gz
Theta_e
311 308 309 308 307 307 306 307 307 308 310 311 312 315 319 319 318 319 319 319 321 322 321 321 320 320 321 322 322 323 322 320 321 322 321 321 321 322 322 322 323 322 320 319 319 320 320 320 320 321 321 321 322 322 321 321 321 321 322 322 320 318 318
309 308 309 309 307 307 306 306 307 307 308 311 313 315 317 318 318 317 317 317 319 320 321 321 320 321 322 322 322 322 321 320 320 320 320 320 322 323 323 321 321 320 319 319 319 320 320 321 321 320 319 319 320 321 321 320 320 319 319 320 320 318 318
310 310 310 310 308 307 306 306 306 306 307 309 312 315 316 316 316 316 316 316 317 318 319 320 321 321 322 322 322 322 321 320 320 320 321 321 321 322 321 319 319 319 319 319 320 320 319 318 317 316 313 310 310 312 313 315 315 314 315 316 317 318 318
311 310 311 310 308 307 306 306 305 306 306 306 309 312 315 315 314 314 315 314 314 313 314 315 316 318 320 320 320 321 321 320 319 319 320 320 320 319 318 317 317 317 317 319 320 319 316 313 312 311 308 306 306 307 309 311 312 313 315 315 315 316 317
312 311 310 310 309 307 306 305 305 305 306 306 306 308 310 310 309 310 309 309 308 307 308 307 308 309 311 310 312 315 317 318 317 318 319 319 317 314 311 312 314 315 315 316 317 314 310 307 306 305 305 306 307 308 311 313 314 315 316 316 317 317 317
315 313 310 309 309 308 305 305 305 304 305 305 306 306 306 306 306 306 306 306 306 306 306 306 305 306 305 305 305 306 309 311 312 313 313 312 310 306 305 307 309 310 310 310 309 307 305 304 304 304 304 305 305 306 311 315 315 315 316 316 318 318 319
315 313 311 309 310 309 306 305 305 305 305 305 305 306 306 306 306 306 306 306 306 306 306 306 306 306 306 306 306 305 305 306 306 306 306 306 305 305 304 304 304 305 305 305 304 303 303 303 303 304 304 304 303 304 309 315 315 315 315 316 317 318 319
315 312 310 310 311 310 307 306 306 306 306 306 306 306 306 306 306 306 306 306 306 306 306 306 306 306 306 306 306 305 305 305 305 305 305 305 304 305 304 304 303 303 303 303 303 303 303 302 302 303 302 303 303 303 307 313 315 315 315 315 316 317 318
316 312 311 310 311 311 308 307 307 308 308 308 307 306 306 306 306 306 306 306 306 306 306 306 306 306 306 306 305 305 305 305 305 305 305 304 304 304 304 303 303 303 303 303 303 303 303 302 302 302 302 302 302 302 304 309 313 313 313 313 315 316 317
317 314 311 311 311 312 311 309 309 309 309 309 308 308 308 307 307 307 306 306 306 306 306 306 306 306 306 306 305 305 305 305 305 305 305 304 304 304 304 304 304 304 304 303 303 303 303 302 302 302 302 302 303 303 302 303 306 306 306 307 310 313 314
318 315 313 312 312 313 313 313 313 311 310 310 309 309 309 308 308 308 307 307 307 306 307 306 306 306 306 306 306 306 305 305 305 305 306 305 305 305 305 305 305 305 305 305 304 304 303 303 303 304 304 304 304 304 304 304 304 304 304 304 304 306 308
318 316 314 313 313 314 314 314 315 314 313 311 311 310 311 310 310 309 308 308 308 307 307 307 307 307 306 306 306 306 307 306 306 306 307 307 307 307 307 307 307 307 307 306 306 306 305 305 306 306 306 306 306 306 306 306 306 306 305 305 304 304 304
318 317 315 314 314 314 314 315 315 316 314 313 312 312 313 313 312 312 310 310 310 310 309 309 308 308 307 307 307 307 307 307 307 307 307 307 307 308 308 308 308 308 308 308 308 308 308 308 308 308 308 308 307 306 306 306 306 307 307 306 306 305 304
318 317 316 314 314 314 315 315 315 316 315 314 314 314 314 315 315 315 314 313 314 314 313 313 312 310 310 309 308 308 307 308 308 307 308 308 307 308 308 307 307 308 308 309 309 309 310 309 309 309 308 308 307 306 306 306 306 307 307 307 306 305 304
318 317 316 316 315 315 315 315 315 316 316 314 315 315 316 316 316 316 316 315 315 316 316 316 316 315 315 314 313 312 310 309 309 308 308 308 308 308 308 308 307 307 307 308 308 308 309 309 309 309 308 307 307 306 305 305 305 305 306 307 306 305 304
318 317 316 316 316 315 316 316 315 316 316 315 316 316 316 316 317 317 316 316 316 316 317 317 317 317 317 317 317 316 316 314 313 312 310 309 308 308 308 308 308 308 308 307 307 308 308 308 308 308 308 307 306 305 304 304 304 303 304 305 305 305 304
318 317 316 317 317 316 316 316 316 315 316 316 316 316 317 317 317 317 317 317 316 316 317 317 317 317 317 317 317 317 318 317 317 316 314 313 311 311 310 308 308 308 308 308 307 307 307 308 308 307 307 307 306 305 304 303 303 303 302 303 304 304 303
319 318 317 318 318 317 317 317 316 316 316 316 316 317 318 318 318 318 317 317 316 317 317 317 316 317 316 316 317 317 318 318 318 317 317 316 314 314 313 311 309 308 308 308 308 308 308 308 308 307 307 306 305 305 304 304 304 304 303 302 303 303 303
320 319 318 318 318 318 319 318 317 317 316 317 317 317 319 319 319 318 317 317 317 317 317 317 316 316 315 315 316 317 318 318 318 318 317 316 316 315 315 313 311 310 309 309 308 308 308 308 308 307 306 306 305 305 305 305 305 305 304 303 302 302 302
320 320 319 319 318 318 318 318 318 319 318 318 318 318 319 319 319 318 317 317 317 317 317 317 316 315 315 315 315 316 317 317 317 318 317 317 316 315 315 314 313 311 311 310 309 308 308 308 307 307 306 306 306 306 306 306 305 304 303 302 301 300 300
320 320 319 319 318 318 318 318 318 319 319 319 319 319 318 318 319 318 318 317 317 317 317 317 315 314 313 314 314 314 313 314 317 318 317 317 317 316 315 314 313 312 311 311 310 309 308 308 307 307 307 306 306 307 306 305 304 303 302 301 299 299 299
321 320 319 318 317 317 317 317 318 318 318 318 318 318 317 317 317 317 318 318 318 318 318 316 314 312 313 314 314 314 313 315 317 318 317 317 317 316 315 315 314 313 312 312 311 310 309 308 308 308 307 307 307 306 305 304 303 302 300 299 298 298 298
320 319 318 318 317 317 317 318 318 318 318 318 317 316 316 316 316 316 317 317 316 317 316 315 314 313 315 315 315 316 316 316 317 318 318 317 317 316 315 315 314 313 312 312 311 311 310 309 308 308 308 308 308 307 305 303 301 300 299 298 298 297 297
319 317 318 318 317 317 317 317 317 317 317 316 315 314 314 316 316 315 315 315 314 314 314 314 314 314 315 316 316 317 317 317 317 317 318 318 317 316 315 314 314 313 313 312 312 311 310 309 308 308 308 308 308 307 305 303 301 300 299 298 298 297 297
316 316 317 317 315 314 314 313 314 314 314 313 312 312 312 312 312 312 313 314 315 315 315 315 314 314 314 316 317 318 318 318 317 317 318 318 317 315 314 314 313 313 312 312 312 311 310 309 309 309 308 308 308 307 306 303 301 300 299 299 298 297 297
311 312 314 314 312 311 310 310 310 311 312 312 312 312 312 311 311 312 313 315 315 315 316 315 315 315 315 316 317 318 319 319 319 318 318 318 317 315 314 314 313 312 312 312 312 311 309 309 309 309 309 308 307 306 305 303 302 300 300 299 299 298 297
309 310 311 311 310 309 309 310 310 310 311 311 311 312 313 313 313 314 314 314 314 314 314 314 314 313 312 312 312 313 315 317 319 319 318 318 317 316 315 314 313 312 311 311 311 310 308 308 308 308 307 307 306 305 303 302 301 300 300 300 299 298 298
309 309 309 309 310 310 310 310 310 310 310 311 312 313 314 314 314 314 313 313 313 313 312 310 309 307 306 306 306 308 312 315 317 318 318 317 316 315 314 313 312 311 311 310 310 308 307 306 306 306 305 305 304 303 302 301 301 300 300 300 299 299 298
308 309 309 309 309 308 306 306 306 306 307 309 311 312 312 311 311 311 311 311 311 311 310 308 306 304 303 302 302 305 309 313 316 317 317 316 315 314 313 312 311 311 310 309 308 306 305 305 305 305 304 303 303 302 301 301 301 300 300 300 299 299 298
309 308 309 308 306 303 302 302 303 303 303 304 304 305 306 306 306 306 307 308 309 310 310 308 306 304 303 301 302 303 305 308 311 314 315 315 314 313 312 311 310 310 308 307 305 305 305 305 305 304 303 302 302 301 301 301 300 300 300 300 299 299 298
307 308 308 306 304 303 302 302 302 302 302 302 303 304 304 305 306 306 306 307 308 309 310 309 307 306 305 304 303 304 305 308 310 312 313 313 312 311 309 309 309 309 307 306 305 305 305 305 304 303 302 302 301 301 301 301 300 300 300 299 299 298 298
307 307 307 306 306 305 304 303 302 302 302 302 302 304 305 306 307 308 308 309 309 309 309 309 309 309 308 307 306 306 307 310 312 312 312 311 310 309 309 309 309 308 307 306 306 306 305 304 303 303 302 302 301 301 301 301 300 300 299 298 298 297 296
308 307 307 307 306 305 305 304 304 303 303 302 301 302 304 307 308 309 310 310 310 310 309 309 310 310 310 309 308 307 307 309 311 312 311 310 310 309 309 308 308 307 306 306 305 304 304 303 303 302 302 301 301 301 300 300 299 298 298 297 296 295 295
306 306 306 306 306 306 306 305 305 304 304 303 303 302 302 304 306 308 309 310 310 310 310 310 310 310 310 310 309 308 307 307 309 310 310 310 309 308 308 307 306 306 305 304 304 303 302 302 301 301 300 300 300 299 299 298 297 296 296 295 294 294 294
305 305 305 305 305 306 307 307 307 306 306 304 304 304 303 302 302 304 307 308 310 310 310 310 311 311 310 310 309 308 307 306 307 308 308 308 308 307 306 305 304 304 303 302 302 301 300 300 300 300 299 299 298 297 296 295 295 294 294 294 294 294 293
305 304 304 304 304 305 307 307 307 307 306 305 305 304 304 303 302 302 305 307 309 310 310 311 311 310 310 310 309 308 306 305 305 305 306 307 307 306 305 304 303 302 302 301 300 300 300 300 300 298 297 296 295 294 294 294 294 294 294 294 294 293 293
305 304 304 304 304 304 305 305 305 304 304 304 304 304 303 303 302 304 306 309 310 310 310 310 310 310 310 309 308 307 305 305 305 305 305 306 305 304 303 303 302 301 301 300 299 299 298 297 296 295 295 294 294 294 294 294 294 294 293 293 292 292 291

ECMWFFLT1_850_thetae_009.txt.gz
Theta_e
319 317 310 306 307 308 310 311 312 314 315 315 316 318 319 319 318 318 317 315 317 320 319 320 321 320 320 322 322 322 322 321 321 321 322 323 322 321 321 320 320 321 321 320 319 318 318 318 320 320 320 320 320 320 320 320 320 320 320 319 320 321 320
319 313 307 307 307 306 306 307 310 314 315 316 316 317 318 318 318 317 317 317 319 321 320 320 320 319 320 321 321 321 320 319 319 320 320 321 321 321 321 321 320 320 319 319 318 318 319 318 316 314 312 311 312 313 314 316 317 318 317 316 318 319 319
316 310 307 307 307 307 307 306 307 310 312 313 315 316 317 317 317 316 316 316 318 319 319 319 318 316 317 320 321 321 320 320 319 319 320 320 320 321 321 320 319 318 318 318 319 319 319 314 309 307 306 305 308 311 313 313 313 314 314 315 315 316 317
312 308 307 308 307 307 306 305 306 308 310 312 314 315 316 316 315 315 314 315 316 317 317 317 317 317 317 318 319 319 319 319 318 317 319 320 319 319 319 318 318 317 316 316 318 319 316 309 305 304 304 305 308 313 315 314 314 315 315 316 316 316 317
310 308 308 308 308 307 306 306 305 306 308 311 313 314 314 314 313 312 311 311 312 312 312 312 313 315 316 316 317 318 318 317 316 317 319 319 318 316 313 312 312 312 311 311 313 313 309 305 304 304 304 304 306 312 315 315 315 316 316 317 317 317 317
309 308 308 308 308 307 305 305 305 305 306 307 309 310 310 309 308 307 307 307 307 306 306 306 306 307 309 310 311 313 314 313 313 314 315 313 311 308 306 306 306 307 307 307 307 306 304 303 303 303 303 303 305 311 315 314 315 315 316 316 317 316 316
310 308 308 308 309 307 305 304 304 305 305 305 306 306 306 306 306 306 306 306 306 305 305 305 305 305 305 305 305 306 307 307 308 308 308 307 305 305 304 305 305 304 304 304 303 303 302 302 302 302 302 302 302 308 313 314 314 314 314 314 315 315 315
313 311 309 308 309 306 305 305 304 305 305 305 305 305 305 305 305 306 305 306 306 306 306 306 305 305 305 305 305 305 305 305 305 305 305 305 305 305 304 304 304 304 303 303 302 303 303 302 303 302 302 302 302 304 309 312 312 312 312 310 311 313 313
315 314 310 309 308 306 305 305 305 305 305 305 305 305 305 305 305 305 305 305 305 305 306 306 305 306 305 305 305 305 304 304 305 304 304 304 304 304 304 303 303 303 303 303 303 303 303 303 303 303 303 303 303 303 305 306 307 307 307 306 307 308 308
317 315 311 309 308 306 306 307 306 306 306 306 306 306 306 306 305 305 305 305 305 305 305 305 305 305 305 305 305 305 305 304 304 304 304 304 304 304 304 304 304 304 304 305 304 304 304 304 305 305 305 306 306 305 305 306 305 305 305 305 305 305 305
317 318 313 310 308 307 307 307 307 307 307 307 307 306 307 307 307 307 306 306 306 305 305 305 305 305 305 305 305 305 305 305 305 306 305 305 305 305 306 306 306 306 307 307 306 306 305 306 307 307 307 308 308 307 307 307 307 306 306 306 305 305 305
316 318 316 311 309 307 307 308 308 308 308 307 307 307 307 308 308 309 308 308 308 307 307 307 306 306 306 306 307 307 307 307 307 307 307 307 307 307 307 307 307 307 309 308 308 308 307 308 308 308 308 308 308 307 307 307 307 307 306 306 306 305 305
316 318 318 314 310 308 307 308 308 308 308 308 307 307 308 308 308 309 309 309 309 309 309 309 308 308 308 307 308 307 308 308 308 308 308 308 308 307 308 308 308 308 308 309 309 309 310 309 309 309 309 309 308 308 307 307 307 307 306 306 306 305 305
317 318 319 316 312 310 309 310 311 311 311 310 309 308 308 308 308 308 309 309 310 309 309 309 309 309 308 308 308 308 308 308 308 308 308 308 308 308 308 308 308 308 308 308 309 309 310 310 311 310 310 309 309 308 308 307 307 308 308 307 307 306 306
317 318 319 317 314 312 311 312 313 314 314 313 313 312 311 310 310 309 309 310 311 311 311 311 311 310 310 310 310 310 310 310 310 310 309 308 308 308 308 308 308 307 307 308 308 308 309 310 310 310 310 310 309 308 308 308 308 308 309 308 307 307 306
318 319 319 318 316 314 312 312 313 314 315 315 315 315 314 314 313 312 312 314 315 315 315 315 314 314 314 314 315 315 315 315 315 314 314 313 312 311 311 311 310 309 308 307 308 308 308 309 309 310 310 309 309 308 308 309 309 308 309 309 308 307 307
317 319 320 319 317 316 314 313 313 314 315 316 316 316 316 315 315 315 315 316 316 316 316 316 316 316 316 316 316 316 317 317 317 317 317 316 316 315 315 315 314 313 311 309 308 308 308 308 308 309 310 309 309 309 309 310 310 309 309 309 308 307 306
316 319 321 320 318 317 316 315 315 315 315 316 316 316 316 316 316 315 316 316 317 316 316 316 316 317 316 317 317 316 317 317 317 317 317 317 317 317 317 317 316 316 315 313 310 309 309 308 308 309 309 310 310 310 311 311 311 310 309 309 308 306 305
316 319 321 320 318 317 317 316 316 316 316 317 316 316 316 316 316 316 316 317 317 317 317 317 317 317 316 316 316 316 317 317 317 317 317 317 317 317 317 317 316 316 316 315 313 311 311 310 310 309 309 309 310 310 311 311 311 310 310 308 306 305 303
317 318 320 319 318 317 317 316 316 316 316 317 317 317 317 316 316 316 315 316 316 317 317 317 317 317 317 316 315 315 316 317 317 317 316 316 316 317 317 317 317 316 316 316 315 314 313 313 311 310 309 309 309 310 310 310 310 310 309 307 305 304 303
319 319 319 319 318 317 317 317 317 317 317 317 317 317 317 316 316 315 315 315 316 316 317 317 318 317 317 316 314 313 314 315 316 316 315 315 316 316 316 316 316 316 316 315 315 314 314 313 312 311 309 309 309 309 309 310 310 309 307 306 304 303 302
320 319 319 319 318 317 317 317 317 317 316 316 317 316 315 316 317 316 315 315 315 315 316 317 318 318 317 316 313 312 313 314 315 316 315 315 316 316 317 317 317 316 315 315 314 313 313 312 312 311 310 309 309 308 309 310 309 308 306 305 303 303 302
319 318 318 318 317 316 317 317 316 316 316 315 315 314 314 315 316 316 315 314 314 314 316 317 318 318 317 316 314 314 314 315 315 316 316 316 316 316 317 317 317 316 315 314 313 312 312 311 311 310 310 309 308 309 309 309 308 307 305 304 303 302 302
318 317 317 316 316 317 317 317 316 315 316 315 314 314 315 315 316 315 315 315 315 316 317 318 318 317 317 316 315 315 315 315 315 316 316 317 316 317 317 317 318 317 315 314 313 312 311 310 310 310 309 309 308 308 308 308 307 305 304 304 303 303 302
317 317 316 316 318 319 318 317 316 316 316 316 315 316 316 317 316 315 315 316 316 316 317 316 316 316 315 315 315 315 315 315 316 316 317 317 317 318 317 317 318 317 316 314 313 312 310 310 309 310 310 309 308 307 307 307 306 305 304 304 304 303 302
318 318 318 318 319 319 317 317 317 317 316 316 317 317 317 316 315 315 314 315 315 316 316 315 315 315 315 315 316 315 315 314 313 313 314 315 316 318 318 318 318 317 315 313 312 311 310 309 310 311 310 309 308 307 306 306 306 305 304 304 303 302 302
319 319 319 318 318 318 317 316 315 314 314 315 315 316 315 315 314 314 313 314 315 315 315 315 315 315 314 314 313 311 309 307 306 306 306 308 312 315 317 317 317 316 314 313 312 311 310 309 310 310 309 308 307 307 306 305 306 305 304 304 303 302 301
315 317 317 317 316 315 313 313 313 313 313 313 314 314 314 314 314 314 314 314 314 314 313 313 313 312 310 308 306 305 303 302 301 302 303 306 309 313 315 316 316 315 313 312 311 310 309 309 310 309 308 307 306 306 305 305 305 305 304 303 302 301 301
311 314 315 315 314 312 312 312 312 312 312 313 313 313 313 314 314 314 314 314 313 312 311 310 309 307 306 305 304 303 302 302 302 302 302 304 307 311 314 315 315 314 312 312 310 309 308 309 309 309 308 306 305 305 304 305 305 304 303 302 301 301 300
310 313 314 312 310 310 311 311 311 310 311 311 311 312 312 312 312 311 310 309 308 308 307 306 306 305 305 305 305 305 304 304 303 303 303 303 304 309 312 314 314 313 312 312 310 308 308 309 309 308 306 305 305 305 305 305 304 304 303 301 301 301 300
309 310 310 309 309 308 307 307 307 307 308 308 308 308 308 307 306 305 305 304 305 306 306 307 307 307 307 307 307 307 307 306 305 305 304 304 305 308 311 312 312 312 311 310 309 308 308 308 307 306 305 305 306 305 305 304 303 302 302 301 301 300 299
309 309 309 308 308 307 304 303 303 304 304 304 304 304 303 303 303 304 304 304 305 306 307 309 309 309 308 309 309 309 309 308 308 307 305 306 308 309 310 310 310 310 309 309 308 308 307 307 306 305 305 306 305 305 304 303 302 302 301 301 300 299 298
308 308 308 308 307 306 304 303 303 302 302 302 302 302 303 303 303 304 304 305 305 307 309 310 310 310 310 310 310 310 310 309 309 308 306 306 307 308 309 308 308 308 308 307 307 307 307 306 306 305 305 305 304 303 302 302 301 300 300 299 298 297 296
308 308 308 307 307 306 305 304 304 303 303 303 303 303 303 302 302 303 303 304 305 308 309 310 310 310 310 310 310 310 310 309 309 308 306 305 305 305 306 307 308 307 307 306 306 306 305 305 305 304 304 303 302 301 300 300 299 298 297 296 295 294 294
307 307 307 307 307 307 306 305 305 305 305 305 304 304 304 304 303 303 302 302 303 304 305 307 309 310 311 310 310 310 310 309 309 308 306 305 304 304 305 306 306 306 306 305 305 304 304 304 303 302 302 300 300 299 298 297 296 296 295 295 294 294 294
306 306 306 306 306 306 306 306 306 306 306 306 306 306 306 305 304 304 303 302 302 302 303 306 309 310 310 310 309 309 308 308 308 307 305 305 305 305 305 305 305 304 304 304 303 304 303 303 302 300 299 298 297 297 296 295 295 295 295 294 294 294 294
305 305 305 304 304 305 305 306 307 307 307 307 307 306 305 304 303 303 303 302 302 303 305 308 310 309 307 306 305 306 306 307 307 307 305 305 305 305 304 304 303 303 302 302 302 302 301 299 298 297 296 295 295 295 295 295 294 294 294 294 294 293 293

ECMWFFLT1_850_thetae_012.txt.gz
Theta_e
316 317 314 309 306 307 307 307 307 307 306 307 308 310 313 316 317 316 314 314 316 317 318 319 320 321 320 321 321 322 322 322 322 323 323 323 322 321 321 322 321 321 320 320 319 318 319 318 316 314 313 313 315 317 317 318 318 318 318 318 317 318 319
318 319 317 310 306 307 307 307 306 306 306 306 308 311 316 318 318 316 315 316 318 319 319 319 320 319 319 320 320 320 320 319 320 320 321 322 322 322 322 321 321 320 319 319 319 319 317 313 308 306 309 311 311 312 313 314 315 316 316 316 316 316 317
319 319 317 310 306 307 307 307 306 305 305 306 306 310 314 316 316 316 315 316 319 320 320 319 318 317 318 320 320 320 319 319 319 320 320 321 321 321 321 320 318 317 317 317 318 319 316 309 304 304 309 313 313 313 314 314 314 314 314 315 315 316 316
319 319 315 309 306 307 307 306 306 305 305 305 306 308 312 314 314 314 313 314 316 318 317 317 315 314 317 320 319 318 318 317 318 319 319 319 319 318 317 315 315 314 312 311 313 313 310 306 304 304 308 312 314 314 314 314 314 314 314 315 315 315 316
319 319 314 308 307 308 307 307 306 305 305 305 306 308 311 312 311 310 310 311 312 312 312 311 311 312 315 318 318 317 317 316 316 318 318 317 316 313 310 308 309 308 307 306 306 306 305 303 304 303 305 311 314 314 314 314 314 314 314 314 313 312 313
319 318 313 308 307 308 307 306 305 305 304 304 306 308 310 310 308 307 307 308 307 307 306 307 308 310 311 313 314 313 313 313 313 314 314 312 309 306 305 305 305 305 304 304 304 303 303 302 302 302 303 308 313 314 313 313 312 312 313 312 311 310 309
319 315 311 308 308 308 307 305 305 304 305 304 306 308 308 307 306 306 306 306 305 305 305 305 305 306 307 307 307 306 307 307 307 306 306 306 305 305 305 305 304 304 303 303 303 303 302 302 302 302 302 306 311 314 314 312 310 310 309 309 308 308 308
318 314 310 308 308 308 306 305 304 304 305 305 306 307 307 306 306 305 305 305 305 305 305 305 305 305 305 305 305 304 305 305 304 305 305 305 305 304 304 304 303 303 303 303 303 304 304 304 303 303 301 303 307 311 311 310 309 309 307 305 305 306 306
315 312 311 310 308 308 306 304 304 304 305 305 305 306 306 305 305 305 305 305 305 305 305 305 305 304 304 304 304 304 304 304 304 304 304 304 304 303 303 304 304 305 306 306 306 307 307 307 306 306 304 303 304 306 307 306 306 307 305 305 305 305 305
312 310 312 313 309 307 306 304 304 305 305 305 305 305 305 305 305 305 305 305 305 305 305 305 304 304 304 304 304 304 304 304 304 304 304 304 304 305 305 306 307 308 310 310 310 310 310 310 309 309 309 307 306 306 306 306 306 306 306 306 306 305 305
312 311 313 316 313 308 306 305 305 305 305 305 305 305 305 305 305 305 305 305 305 305 305 305 304 304 304 304 305 305 305 305 305 305 306 306 306 307 308 309 309 310 311 311 311 312 311 311 311 311 310 309 309 308 308 307 306 306 306 306 306 306 306
314 312 312 315 316 311 306 305 305 305 306 305 305 306 305 305 305 306 305 305 305 305 305 305 305 305 305 305 306 307 307 308 308 308 308 308 308 309 309 310 310 311 311 311 311 311 312 312 312 311 311 310 310 310 310 309 308 307 307 307 306 306 306
315 314 311 314 317 313 307 306 306 306 306 306 306 306 306 306 306 306 306 305 306 305 305 305 305 305 306 306 306 307 308 308 308 308 309 309 309 309 309 310 310 309 310 310 310 310 311 311 312 312 312 312 312 311 311 311 310 309 308 308 308 307 307
315 314 312 314 316 315 310 307 306 306 306 306 306 306 306 306 306 306 306 306 305 306 306 306 306 306 306 306 307 307 307 307 307 307 307 308 308 308 308 309 308 308 308 308 309 309 310 310 311 311 312 312 312 312 312 312 311 311 310 310 310 309 308
317 315 314 315 316 317 314 309 307 307 307 307 307 307 307 307 307 307 307 306 306 306 306 306 306 306 306 307 307 307 307 307 307 307 307 307 307 307 308 308 308 308 308 307 308 308 308 309 309 310 311 311 312 312 312 312 312 311 311 311 311 310 309
318 315 314 315 316 317 317 313 309 307 308 308 308 307 307 307 307 307 307 307 307 306 307 307 307 307 307 308 309 311 312 311 311 311 310 309 309 308 308 309 309 309 309 308 308 308 308 308 308 309 309 310 310 311 312 311 311 311 311 311 311 310 310
319 316 314 315 316 317 318 316 312 309 308 310 311 311 310 308 308 308 308 308 308 308 308 307 308 308 309 310 312 315 316 316 316 316 315 315 314 313 313 312 312 312 312 312 310 310 308 308 308 309 309 309 309 310 310 311 311 311 311 311 311 310 310
320 317 314 315 316 316 318 318 316 313 311 311 313 314 314 312 311 310 309 310 310 311 311 311 311 312 313 313 314 315 316 316 316 317 317 317 316 316 316 315 314 314 315 315 315 313 312 311 311 310 310 309 309 309 309 310 310 310 311 311 310 310 309
320 318 315 315 316 317 318 319 318 316 314 313 313 314 315 316 314 313 312 311 312 312 312 312 314 315 316 316 316 315 316 316 316 316 317 317 316 316 316 316 315 314 314 315 315 315 315 314 312 312 311 311 310 309 309 309 310 310 310 310 310 309 309
319 317 315 316 317 317 318 319 318 317 316 315 315 315 315 316 316 315 314 313 313 313 312 312 314 316 317 316 316 316 316 316 316 316 316 316 316 316 315 315 315 315 315 314 314 314 315 314 313 312 312 312 311 310 310 309 309 310 310 310 309 309 309
320 318 316 317 317 317 318 320 320 318 316 316 316 315 315 316 316 316 315 315 314 314 314 314 314 316 316 316 316 316 316 317 316 315 314 315 315 315 315 315 316 316 316 315 314 313 313 313 313 312 312 312 312 311 311 310 309 310 310 309 309 309 309
321 319 317 317 317 317 317 319 320 318 316 315 315 315 314 315 316 316 316 315 314 314 315 315 314 314 315 317 317 317 317 317 316 314 313 314 315 315 316 316 316 316 316 316 315 314 313 313 312 311 311 311 311 311 311 310 310 310 310 310 309 309 309
320 319 319 318 318 318 317 319 319 318 316 315 314 314 315 315 316 316 315 314 314 315 315 314 313 312 314 316 317 317 317 317 316 315 314 314 315 315 316 316 316 316 316 317 316 315 314 312 311 311 310 311 310 310 310 310 310 310 310 310 309 309 308
319 318 319 319 319 319 318 318 318 317 316 315 314 314 315 315 315 315 314 313 314 315 315 314 313 313 314 316 317 317 317 316 316 316 315 315 315 315 315 316 317 317 317 317 317 316 315 312 311 310 310 309 309 309 310 310 310 309 309 309 308 308 307
318 318 319 319 319 319 318 318 317 316 316 316 315 315 315 315 315 315 314 314 314 315 315 315 314 314 315 316 317 317 316 315 315 315 314 313 311 310 310 312 314 316 317 317 317 317 316 313 310 309 309 309 308 309 309 310 309 308 307 307 307 307 306
318 318 319 319 318 318 318 317 317 317 317 317 316 315 315 315 315 315 314 315 315 315 315 315 315 315 316 316 316 315 314 314 313 311 309 306 304 304 305 306 309 313 316 317 317 318 316 313 310 309 309 308 308 309 309 309 308 307 306 306 306 306 306
318 318 318 318 318 318 317 318 318 317 317 317 316 316 316 316 315 315 315 316 316 316 315 315 316 316 316 315 313 312 312 310 307 305 303 302 301 302 303 306 308 312 315 316 316 316 315 311 309 308 308 308 308 308 308 307 307 306 306 306 305 305 304
318 318 318 318 318 318 318 318 318 318 317 317 316 316 316 316 316 316 316 315 315 315 315 315 315 315 314 312 310 309 307 305 303 302 302 302 302 302 302 304 307 311 314 315 314 313 312 309 308 307 307 308 308 307 307 306 306 305 305 304 304 304 304
316 317 317 318 318 318 318 317 317 316 315 315 314 314 315 315 316 315 315 314 314 314 314 314 314 313 311 309 307 306 305 304 303 303 302 302 302 302 302 302 304 308 312 314 313 311 309 308 308 307 307 307 307 307 307 306 305 305 304 304 303 303 303
313 313 314 316 317 316 315 315 314 313 313 313 313 313 314 314 314 314 314 314 314 313 313 312 311 310 308 307 307 306 306 305 304 303 302 302 302 301 302 302 303 305 309 312 312 309 308 307 307 307 307 307 307 307 306 305 305 304 304 303 303 303 303
311 312 313 315 315 314 313 312 312 312 312 312 313 313 313 313 313 313 313 312 311 310 310 309 309 309 309 309 309 308 308 307 306 305 305 304 304 303 302 302 303 304 307 310 310 309 307 306 306 306 306 306 306 305 304 304 304 303 303 303 303 302 301
308 311 313 313 312 311 310 311 311 311 310 311 311 312 312 312 312 311 310 308 308 308 308 309 310 310 310 310 310 310 309 309 308 308 307 306 306 305 304 304 304 306 307 308 308 308 307 306 306 306 305 304 304 304 303 303 303 302 302 302 301 300 299
307 309 310 309 307 307 307 307 308 308 308 309 309 309 310 309 309 308 307 307 308 308 309 310 310 311 311 310 310 310 310 310 309 309 308 307 306 305 304 304 305 306 307 307 307 306 306 306 305 305 304 304 303 303 302 302 302 301 301 300 299 298 297
308 309 308 307 307 306 304 304 305 305 305 305 306 306 307 306 306 305 304 305 304 304 305 305 306 308 309 309 310 310 310 309 308 307 306 306 306 305 305 304 304 304 305 306 306 306 305 305 305 304 303 303 302 302 301 301 301 300 299 298 297 296 296
307 308 308 307 307 306 304 304 304 304 303 303 303 304 303 303 303 303 302 302 302 302 302 302 302 303 304 306 309 309 308 306 305 304 304 305 306 305 305 304 304 304 304 304 304 304 304 304 303 303 302 302 302 302 301 300 299 298 297 296 296 295 295
306 306 307 308 307 306 305 305 305 305 304 304 304 303 303 303 303 303 303 303 303 302 302 302 301 301 303 306 308 307 304 303 302 301 303 305 306 305 305 304 304 304 304 304 303 303 303 303 303 302 302 301 301 300 298 297 297 296 296 295 295 294 294
305 305 306 307 307 307 306 306 306 305 305 305 305 304 304 304 304 304 304 303 303 303 302 302 301 302 304 306 306 304 302 302 302 302 303 305 305 305 304 304 303 303 303 303 302 302 301 301 301 300 299 298 297 296 296 295 295 295 294 294 294 293 293

ECMWFFLT1_850_thetae_015.txt.gz
Theta_e
314 314 313 309 307 307 307 307 307 307 307 307 307 308 311 314 316 315 314 314 314 313 314 315 317 319 320 322 322 323 323 324 325 325 324 324 323 323 324 322 321 321 320 320 319 322 322 318 314 313 311 312 313 315 315 315 316 317 317 317 316 316 316
313 312 312 310 307 307 307 307 307 306 306 307 307 309 313 317 316 314 314 316 316 315 315 317 318 319 320 320 321 321 321 322 323 323 323 323 322 322 322 321 321 320 319 318 318 318 318 315 313 311 311 311 311 312 313 313 314 315 315 315 315 316 316
313 312 313 311 308 307 307 307 307 306 305 306 307 309 313 316 316 315 316 318 319 319 318 318 318 319 320 320 320 319 319 320 320 321 321 321 321 321 321 320 319 319 319 319 318 315 310 309 312 313 312 312 311 311 312 312 312 313 314 315 315 316 317
313 313 313 311 308 307 307 307 306 306 305 305 306 308 311 314 314 314 315 318 319 319 319 317 318 319 320 319 319 319 318 319 319 320 320 320 321 321 319 318 318 316 315 316 316 313 307 305 310 313 313 313 312 311 311 312 311 311 312 313 313 314 315
313 312 311 310 308 307 308 307 306 305 305 304 306 309 311 312 312 311 312 316 318 318 316 315 316 320 320 319 318 318 318 319 319 320 320 319 319 317 315 316 314 310 308 308 309 307 305 304 308 312 313 313 312 311 311 311 311 310 311 311 311 311 311
317 315 312 309 307 308 308 306 305 305 304 305 307 310 310 310 310 309 309 311 312 312 312 313 316 319 319 318 318 317 317 318 319 319 317 313 311 309 308 309 307 305 304 304 303 303 303 303 305 310 312 313 312 310 309 309 309 309 309 309 308 308 308
320 318 314 309 307 308 307 305 304 304 304 306 308 309 308 307 307 306 306 306 306 306 307 310 313 315 316 316 315 315 315 315 315 313 310 306 305 305 304 304 304 303 303 304 303 303 303 302 303 306 311 313 312 310 309 309 309 309 308 306 306 306 306
320 318 312 309 308 308 307 304 304 305 305 306 307 307 307 306 306 305 305 304 304 305 305 306 307 308 309 309 308 309 309 309 308 306 305 304 304 304 304 304 304 304 305 305 305 304 303 302 302 303 308 312 312 311 310 309 309 309 307 305 305 305 305
320 316 312 310 309 308 307 305 304 305 305 305 306 306 306 305 305 305 305 305 305 304 304 304 304 305 305 305 304 305 305 305 305 304 304 304 304 303 304 305 306 308 308 308 307 306 306 305 302 302 305 310 311 311 310 309 308 307 306 305 305 305 306
319 315 314 312 309 308 307 305 304 304 305 305 305 305 306 305 305 305 305 305 305 305 305 305 304 304 304 304 304 304 304 304 304 304 303 303 304 306 307 308 310 311 310 310 309 309 309 308 306 304 304 307 309 310 310 309 308 306 306 306 306 306 306
317 313 315 314 310 309 308 305 304 305 305 305 305 305 305 305 305 305 305 305 305 305 305 305 304 304 304 304 304 304 304 304 304 304 304 305 305 307 309 310 311 311 311 311 311 311 311 310 309 308 307 306 307 308 309 309 307 306 307 307 307 307 307
317 312 312 313 313 312 309 307 305 304 305 305 305 305 305 305 305 305 305 305 305 305 305 305 304 304 304 304 304 304 303 304 305 305 306 306 307 307 308 310 310 310 311 311 311 311 312 312 311 311 311 310 309 309 309 310 308 308 308 308 309 308 308
318 314 312 313 315 314 310 308 307 304 305 305 305 305 305 305 306 305 305 306 305 305 305 305 305 304 304 304 304 304 304 305 306 306 307 307 307 307 307 308 308 309 309 310 310 310 311 311 311 311 312 312 312 311 311 311 310 309 309 309 309 309 308
319 316 315 315 315 313 312 312 309 306 305 306 306 306 305 306 306 305 306 305 306 306 305 305 305 305 305 305 305 305 305 306 306 306 306 306 307 307 307 307 307 307 307 307 308 308 309 309 310 310 310 311 311 312 312 312 311 311 310 310 310 309 308
319 318 317 315 313 312 313 315 312 308 306 306 306 306 306 306 306 305 306 306 305 306 305 305 305 305 305 305 306 306 307 307 307 307 307 307 307 307 307 308 308 308 308 308 308 307 307 308 308 309 309 309 310 310 311 311 311 311 311 311 311 310 309
319 318 317 314 312 311 314 317 315 311 309 307 306 306 306 306 306 306 306 306 306 306 306 306 306 306 306 307 308 309 310 311 310 310 310 309 309 309 309 309 310 310 311 311 311 310 309 308 308 309 310 310 309 309 310 310 310 310 311 311 311 310 310
319 317 316 315 313 311 313 316 317 315 312 309 307 307 307 307 306 307 307 307 307 307 306 306 307 307 308 309 310 312 313 313 314 313 313 313 313 313 312 311 311 312 312 313 313 312 311 310 309 310 311 312 312 310 310 310 310 310 311 311 310 309 309
319 317 317 317 316 314 314 315 317 317 315 312 309 308 308 308 307 307 307 307 307 307 307 307 308 309 309 311 312 314 315 315 315 315 315 315 315 315 315 315 314 314 313 313 313 312 313 312 311 310 311 312 313 313 312 311 311 311 311 311 310 309 309
320 319 318 319 318 317 315 315 316 317 317 316 313 310 310 311 310 308 308 308 308 308 307 307 308 309 311 313 314 315 315 315 315 316 315 316 316 316 316 316 316 315 315 315 314 313 313 312 312 311 311 312 313 313 313 313 312 312 312 311 311 310 310
322 320 320 320 319 317 315 314 315 316 317 318 316 313 312 313 313 312 311 310 310 310 310 310 309 310 312 314 315 315 315 315 315 316 316 315 315 315 316 316 316 315 315 315 316 315 315 313 312 312 311 311 312 312 313 312 312 312 312 311 311 311 311
321 321 321 320 320 319 316 314 314 315 316 318 318 316 314 314 315 315 314 314 313 312 312 312 312 312 314 315 316 316 316 316 316 316 316 315 314 314 315 315 315 315 315 315 316 316 316 315 313 312 311 311 311 311 311 311 311 312 312 311 310 310 310
321 321 321 320 320 320 318 315 315 315 316 317 319 318 316 315 315 315 315 315 315 314 314 314 314 314 315 315 316 316 316 316 317 317 317 316 316 315 315 314 315 315 316 316 316 316 316 316 314 312 311 310 310 310 311 311 310 311 311 311 309 309 309
322 322 321 321 320 320 318 316 316 316 316 317 318 319 317 316 316 316 315 315 315 315 315 315 315 315 314 313 313 314 314 315 316 317 317 317 316 316 315 315 315 316 316 316 316 316 316 316 316 314 312 309 309 310 310 309 309 309 310 310 309 308 308
321 321 321 320 320 319 318 316 316 316 316 317 318 318 317 317 316 315 314 314 314 314 314 315 315 314 313 312 312 312 313 315 316 317 316 316 315 315 315 315 314 314 315 316 317 317 317 316 316 316 313 310 308 308 308 308 308 309 310 309 308 308 308
320 320 320 319 319 319 319 318 317 317 317 317 317 317 316 315 315 314 313 313 313 314 315 314 314 313 314 313 312 312 314 315 316 315 315 314 313 313 311 309 307 307 308 311 314 316 317 317 317 317 315 311 308 308 308 308 308 308 309 308 308 307 307
319 318 318 318 318 319 319 319 318 318 318 317 316 316 315 314 313 313 313 312 313 315 316 314 313 314 315 315 314 314 314 316 315 314 312 310 308 306 304 302 302 302 303 306 308 313 316 317 317 317 315 311 308 308 307 306 307 308 308 307 306 306 306
318 318 318 318 318 319 319 319 318 318 317 317 317 316 316 315 314 314 314 314 315 316 315 314 314 315 315 315 315 315 315 314 312 309 306 304 303 302 302 301 301 302 303 305 308 312 315 317 317 316 313 310 308 307 307 306 306 307 306 306 305 305 305
318 318 318 318 318 318 318 318 318 317 317 317 317 316 316 316 315 316 315 315 316 315 315 314 315 316 315 315 316 314 312 310 307 305 303 303 302 302 302 302 302 303 305 307 311 313 314 314 314 313 311 309 308 307 306 306 306 305 305 305 305 305 304
314 314 315 317 317 318 318 317 317 316 315 315 316 315 316 316 316 316 316 316 316 315 315 315 316 315 315 315 314 311 309 306 305 304 304 303 303 303 302 302 302 303 305 307 310 312 312 311 310 310 308 307 306 306 305 305 305 305 305 305 304 304 303
309 310 312 313 314 315 317 318 318 317 316 315 316 316 316 316 316 316 316 316 316 316 316 315 315 315 315 314 311 308 307 306 306 305 305 305 304 303 302 302 302 302 302 304 307 309 309 309 308 307 306 305 305 305 305 305 305 305 305 304 303 303 302
308 308 309 310 312 314 316 317 317 317 316 315 314 314 314 314 315 315 315 315 315 315 314 314 315 314 313 310 308 307 307 307 307 307 306 305 305 304 303 302 302 302 302 302 303 306 308 308 306 305 305 305 305 305 305 305 304 304 304 303 303 302 302
307 307 307 309 312 314 315 315 315 315 315 313 313 313 312 313 314 314 314 314 314 314 314 314 313 312 310 309 308 308 308 309 309 308 307 306 305 303 303 302 302 302 302 302 303 305 307 307 306 306 305 305 305 304 304 304 303 303 303 302 302 301 301
307 307 306 308 311 313 312 312 312 312 313 312 313 313 313 313 313 313 313 313 313 312 312 311 310 310 310 310 310 310 310 310 309 308 307 305 303 302 302 302 303 303 303 303 304 305 306 306 306 305 305 305 305 304 303 303 302 302 301 301 301 301 300
306 306 306 307 310 311 310 309 309 310 310 311 312 312 312 312 312 312 312 311 310 309 310 310 310 310 310 310 310 310 310 309 308 306 304 303 302 302 302 303 304 304 304 303 303 304 304 304 304 304 304 304 304 304 303 302 302 301 301 301 300 299 297
305 305 306 307 309 308 308 308 307 307 307 308 309 310 311 311 311 310 309 309 308 308 308 308 308 307 307 307 307 308 308 307 305 303 302 302 301 302 303 304 304 304 304 304 303 303 303 303 303 303 303 303 303 303 302 302 301 300 299 298 297 296 295
305 305 305 306 307 307 306 306 306 305 305 305 306 307 308 309 309 308 307 306 305 304 304 303 303 302 303 304 306 307 306 304 303 302 302 302 302 302 303 304 304 304 304 303 303 303 303 303 303 302 302 302 301 300 299 298 297 296 296 295 295 294 294
304 305 305 305 306 306 306 305 305 305 304 304 304 304 306 307 306 305 304 303 302 303 302 302 302 302 302 304 306 306 305 303 303 303 303 303 303 303 303 303 303 303 303 302 302 302 301 301 300 299 299 298 297 296 296 296 295 295 294 294 294 294 294

ECMWFFLT1_850_thetae_021.txt.gz
Theta_e
328 326 325 324 324 324 323 323 321 319 322 322 321 323 322 319 319 318 318 320 322 323 322 322 323 324 325 327 327 327 326 326 326 325 326 327 327 327 328 327 326 325 323 323 324 323 323 322 321 321 319 318 317 318 319 319 318 318 318 319 319 320 321
326 324 323 321 322 322 323 323 322 321 322 324 324 324 323 322 321 319 319 320 322 323 322 323 324 323 324 325 325 325 326 326 326 326 327 327 327 327 328 328 327 324 322 323 324 323 322 321 320 319 318 316 315 316 316 316 316 316 316 316 317 318 318
325 324 323 321 322 322 322 321 322 321 321 323 325 324 324 324 323 322 323 323 323 324 323 324 323 322 323 323 322 322 324 325 325 326 328 327 327 328 327 327 327 325 324 324 325 323 320 319 319 318 317 317 316 315 315 315 315 314 315 315 315 315 316
325 325 324 322 322 322 322 321 322 323 322 323 324 324 324 324 324 323 324 324 323 323 323 323 324 323 323 321 320 322 323 324 325 325 327 328 327 327 327 326 326 325 324 324 323 321 319 319 318 318 318 317 316 315 314 314 313 313 313 313 313 314 314
325 325 324 322 322 322 321 321 321 322 322 322 323 324 323 323 323 323 323 324 323 323 324 323 324 324 324 322 321 323 323 323 324 324 325 327 327 326 326 324 323 323 322 321 320 319 318 318 318 317 316 315 315 314 313 313 312 311 310 310 311 312 313
324 325 325 322 321 321 320 321 321 320 321 322 323 323 322 322 323 323 323 324 323 322 322 322 322 322 323 323 323 322 322 321 323 324 325 326 326 325 323 321 319 319 318 317 318 317 317 317 317 316 315 315 315 314 313 312 311 309 309 308 308 310 311
321 324 325 323 321 321 319 320 321 320 321 323 323 322 322 322 323 324 323 323 322 320 319 320 321 321 322 323 323 323 323 322 322 323 324 324 322 321 319 317 315 314 313 313 314 315 315 316 317 316 316 315 315 314 314 313 312 309 308 307 307 308 309
318 322 325 322 320 320 320 320 320 321 322 323 322 321 321 322 322 322 321 320 319 318 318 320 321 321 322 322 322 322 322 320 319 319 319 319 318 317 315 314 313 312 312 312 312 312 314 316 316 316 315 314 314 315 314 313 312 310 309 308 307 308 308
317 322 323 319 316 316 317 319 321 322 322 321 320 319 319 320 319 318 318 317 317 318 320 321 321 321 321 321 320 319 318 317 316 315 314 312 311 310 312 313 312 312 312 313 313 313 314 315 315 315 315 314 314 314 314 313 312 310 309 309 308 308 308
318 321 321 316 311 310 310 314 319 322 321 320 315 313 316 318 318 317 315 314 315 317 318 319 319 318 317 317 317 316 315 313 312 310 310 308 306 307 311 314 314 314 314 314 313 313 314 314 315 316 316 315 315 314 314 315 313 311 310 310 309 308 308
319 319 319 317 312 308 306 307 312 316 318 316 310 307 309 312 314 314 312 311 312 314 315 316 315 314 314 313 313 312 310 308 307 306 306 306 307 311 314 316 315 315 315 315 314 314 314 314 315 315 315 315 316 316 315 315 315 313 312 311 309 308 307
319 318 319 319 314 308 305 305 305 309 311 309 307 306 306 309 311 312 310 309 308 308 310 310 310 311 310 308 308 307 305 305 305 305 306 308 309 312 315 316 316 315 314 314 315 316 316 315 315 315 315 316 317 317 316 316 316 314 313 312 310 309 309
319 319 319 320 315 309 307 307 305 304 305 305 305 306 308 311 312 311 309 308 307 305 305 306 307 307 306 306 307 306 305 306 307 308 310 311 312 313 314 315 315 314 314 315 315 315 316 316 316 316 316 316 316 316 317 316 316 314 313 312 311 309 309
319 320 319 319 316 311 310 311 308 304 305 305 305 304 308 313 313 311 311 310 308 306 305 305 306 306 307 308 308 307 308 310 311 312 313 314 314 314 315 314 313 313 315 315 314 314 314 315 315 315 315 316 315 316 316 316 316 314 313 312 311 309 308
320 320 319 319 317 312 312 313 310 306 305 306 307 308 311 314 314 312 312 311 310 308 307 307 308 310 310 309 309 310 312 313 312 313 313 314 315 314 314 314 312 312 313 313 314 314 314 314 314 315 315 315 315 315 315 315 315 315 314 313 311 309 309
321 320 319 319 317 313 314 316 315 311 308 308 311 313 314 314 314 314 313 313 312 310 310 310 311 312 310 308 310 313 314 314 312 312 313 313 313 313 314 314 312 311 311 312 314 314 313 314 314 315 315 315 315 315 315 315 315 315 315 314 312 311 310
321 320 320 319 316 314 316 318 317 313 311 310 312 314 315 314 313 315 315 315 314 312 312 313 314 314 312 311 312 313 314 314 313 313 314 313 313 313 315 315 315 314 314 314 315 315 314 314 314 315 315 315 315 315 315 315 315 315 315 314 314 312 311
322 321 320 320 317 314 315 318 317 314 312 312 312 313 315 314 314 314 315 315 315 314 314 314 314 315 315 315 314 314 315 315 315 316 316 315 315 315 316 317 317 317 316 317 317 317 316 316 315 315 315 315 315 315 315 315 315 315 315 315 314 313 313
324 322 321 321 319 317 316 318 319 317 315 315 314 313 313 314 314 314 314 314 314 315 314 314 314 316 316 317 317 316 317 317 317 318 317 317 317 317 318 318 318 318 318 318 317 317 317 316 316 316 316 315 315 314 314 315 315 315 315 315 315 314 313
324 324 323 322 321 320 320 320 319 318 318 319 318 315 313 314 315 314 314 313 313 314 314 314 315 315 315 316 317 317 318 318 318 319 319 318 318 318 318 318 318 318 318 318 318 317 317 317 317 316 316 316 315 315 314 314 315 314 315 315 314 314 314
325 324 324 323 323 323 322 321 320 319 319 320 320 318 316 316 316 315 315 314 314 314 314 314 315 315 315 317 318 319 319 320 320 320 320 319 319 320 319 318 318 318 318 318 318 317 317 317 317 317 317 316 315 315 314 314 314 314 314 315 314 314 314
325 325 324 324 324 324 323 321 321 321 321 321 321 320 319 318 317 315 315 315 315 315 314 314 315 316 317 318 319 320 321 321 321 321 321 321 321 320 319 317 316 316 317 317 317 316 316 316 316 317 317 316 316 316 315 314 314 314 314 314 314 313 313
325 325 325 325 325 324 323 321 320 320 321 322 321 321 320 320 319 317 316 317 316 316 316 316 316 316 317 319 319 320 319 319 319 319 319 320 320 319 318 317 316 316 316 316 316 315 315 315 315 316 316 316 316 316 315 314 314 314 314 314 313 313 313
325 325 324 324 324 324 323 322 321 320 321 322 322 322 321 321 321 320 318 318 318 318 318 317 315 316 317 318 318 318 317 316 316 317 317 318 318 316 316 316 316 315 315 314 315 315 314 314 314 314 314 316 316 316 316 315 314 314 314 313 313 313 313
324 325 324 324 324 324 324 324 323 322 323 322 322 322 321 321 321 321 320 319 319 320 319 316 314 314 314 314 314 315 315 314 315 316 316 316 316 314 315 316 316 315 315 314 312 311 309 307 307 307 308 311 313 315 316 316 315 313 312 313 313 312 312
323 323 323 323 323 323 323 323 323 323 323 323 322 322 322 321 321 321 322 320 321 321 320 317 315 314 313 313 313 313 314 315 315 315 314 315 314 314 316 316 315 315 314 310 308 307 305 303 302 302 302 304 307 310 313 316 316 313 311 311 311 311 311
322 322 322 322 322 322 322 322 322 322 322 323 322 322 322 321 321 321 321 321 321 322 321 319 316 314 314 314 314 314 314 314 314 313 312 313 314 315 316 316 315 315 312 304 302 305 305 302 302 302 302 303 305 308 311 314 316 315 312 309 308 308 309
319 320 321 321 321 321 321 321 321 322 322 322 322 322 321 321 320 319 320 319 319 320 320 319 317 315 315 315 315 315 314 313 313 312 312 313 314 316 316 313 312 313 310 302 301 303 303 302 302 302 303 304 305 307 310 312 313 314 312 309 307 306 307
314 315 317 319 320 320 321 321 321 322 322 322 322 322 321 320 319 320 320 319 318 317 317 317 316 315 316 316 315 315 313 313 314 313 313 315 315 315 313 310 310 308 304 301 302 302 301 302 302 303 305 307 306 306 309 311 311 310 309 308 307 306 306
311 312 313 315 317 318 319 319 320 320 321 321 322 322 321 320 320 320 321 320 319 318 317 317 316 316 315 315 315 315 314 314 314 314 314 314 313 312 309 309 309 306 301 301 302 302 301 302 306 309 309 307 306 306 307 309 308 308 307 307 306 306 306
310 311 311 312 313 315 316 317 317 318 318 319 321 321 321 320 320 320 320 320 320 319 318 318 318 317 317 315 315 314 314 315 315 315 314 313 311 311 308 305 305 304 302 302 302 302 301 303 309 311 309 307 307 306 306 306 306 307 306 306 306 306 306
308 309 310 311 311 312 313 314 315 317 317 318 318 319 320 320 320 321 320 319 319 319 319 319 318 318 317 316 315 315 315 316 315 314 314 312 309 308 305 303 303 303 302 302 302 302 301 303 308 311 309 308 309 308 306 305 304 305 305 304 304 304 303
307 308 308 309 309 310 311 312 313 315 316 316 317 318 319 319 320 320 320 319 318 318 319 319 318 317 316 315 315 315 315 315 314 312 312 310 306 304 304 304 303 302 302 302 301 302 301 302 306 308 308 308 309 308 307 306 303 303 304 303 303 302 302
304 305 306 307 307 308 308 309 311 313 314 315 315 316 318 319 319 320 319 319 319 317 317 317 317 317 316 316 315 315 315 314 313 312 310 308 305 305 304 304 303 302 302 302 301 301 300 300 302 303 304 305 306 306 306 305 303 303 302 302 302 302 301
299 300 302 303 304 305 307 308 309 310 312 314 315 316 317 317 318 318 318 318 318 316 316 316 316 316 315 315 315 314 313 312 312 311 309 308 307 307 305 303 302 302 301 301 300 300 300 300 300 301 301 302 303 303 303 303 303 302 301 301 301 301 301
297 297 298 299 300 301 304 307 308 310 311 313 313 314 315 316 317 317 317 318 316 316 315 316 316 315 314 314 315 313 310 310 311 310 309 309 309 308 305 302 302 301 301 301 301 300 301 301 301 301 301 301 301 301 301 301 301 300 300 300 300 300 300
298 299 300 300 301 301 303 305 307 309 310 312 312 313 314 316 316 315 316 316 316 315 315 315 315 314 313 314 314 311 309 310 311 310 309 309 308 308 305 302 302 302 301 301 301 301 301 301 301 301 301 300 300 300 300 300 300 300 300 300 300 300 300

ECMWFFLT1_850_thetae_024.txt.gz
Theta_e
325 322 322 324 324 322 322 323 321 323 325 324 324 325 323 322 322 324 324 323 324 322 321 322 324 325 326 327 328 327 326 327 327 327 326 324 323 324 324 325 327 326 324 324 325 324 323 322 321 321 320 319 319 320 319 319 320 319 320 320 320 320 321
320 319 321 320 317 316 318 322 323 323 323 323 325 324 324 323 322 324 324 324 325 324 322 323 325 324 325 327 327 327 326 325 324 324 324 324 324 324 324 325 326 325 324 324 324 323 322 322 320 319 317 315 315 316 316 317 317 318 318 318 318 318 318
321 322 321 316 314 317 318 320 322 322 321 322 324 324 324 325 324 324 325 323 323 324 324 324 324 323 324 326 326 324 325 324 323 323 323 324 326 326 325 325 325 324 324 324 323 322 322 322 319 317 316 314 314 315 314 314 314 315 315 316 316 316 315
321 321 318 314 317 321 320 320 322 323 323 322 322 323 323 324 322 322 325 323 321 323 324 323 323 324 324 325 323 322 323 322 322 323 322 323 326 326 325 325 324 323 323 322 321 321 321 320 318 318 317 315 314 315 314 313 313 313 313 313 314 313 311
318 318 316 316 320 322 320 322 322 321 323 322 323 323 322 323 322 321 324 324 322 323 323 322 324 324 324 324 322 322 322 321 323 324 324 324 326 325 324 324 323 322 321 321 320 320 320 318 317 318 316 314 314 313 312 311 311 311 311 312 312 312 310
319 319 318 318 321 322 320 321 321 321 322 323 324 323 320 322 323 322 324 324 322 323 323 322 323 324 324 324 324 324 323 322 323 324 324 324 324 322 321 321 321 320 320 319 319 319 319 317 317 316 315 314 313 313 311 309 309 308 308 309 310 311 310
319 321 321 319 320 321 319 319 320 321 322 323 323 322 321 323 324 323 324 323 323 322 322 323 323 323 324 325 324 324 324 323 323 323 323 322 320 319 318 317 317 318 317 317 317 317 318 317 316 315 315 314 313 313 311 309 308 308 307 308 309 310 310
318 322 324 321 320 320 317 318 321 322 323 324 323 321 321 323 323 322 322 323 323 322 321 323 323 323 324 323 322 322 322 322 322 322 322 320 319 317 316 315 315 315 315 315 315 315 316 316 316 316 314 313 314 313 312 311 310 308 308 308 308 309 310
319 321 324 322 319 317 315 318 320 320 321 322 321 318 317 318 319 320 321 321 322 322 322 322 323 322 322 321 320 319 318 318 319 319 319 318 316 314 313 313 313 313 313 313 313 315 316 316 316 315 314 314 314 313 312 311 310 309 309 309 308 309 310
319 321 322 321 317 313 313 316 316 316 317 317 316 314 313 314 315 318 318 318 320 322 321 322 321 321 320 318 317 316 315 314 312 311 310 311 312 312 313 313 313 313 313 313 314 315 315 315 315 315 315 315 315 314 313 312 311 310 310 310 309 308 309
319 321 321 319 316 313 311 312 311 311 311 312 311 310 310 311 313 314 312 311 316 320 319 319 318 318 317 317 316 314 312 309 307 305 305 309 314 316 316 316 314 312 311 312 314 314 315 315 315 315 316 316 316 316 315 313 312 312 311 310 309 309 308
319 321 320 318 316 314 311 310 309 308 307 307 307 306 306 308 309 309 307 307 312 316 317 316 316 315 315 315 313 310 307 306 304 304 305 309 314 316 315 314 313 312 311 311 313 314 315 315 315 315 316 317 316 317 316 314 314 313 312 312 310 310 309
320 321 320 319 318 315 313 310 308 306 305 305 305 304 305 307 307 307 306 305 307 310 313 313 313 312 311 310 309 306 305 305 305 306 308 310 313 314 313 313 314 314 313 312 312 314 316 316 316 316 315 316 316 316 317 316 315 314 313 313 311 309 309
320 320 320 320 318 316 314 312 309 309 308 308 307 306 307 308 308 306 306 307 308 307 309 310 310 309 309 309 307 305 307 308 309 311 312 313 314 315 313 313 314 316 314 313 313 314 315 315 315 315 315 315 315 315 316 316 316 315 314 313 311 310 310
321 320 320 319 318 316 314 312 311 312 311 310 308 307 309 311 310 308 309 311 311 309 308 307 308 310 310 309 308 309 311 313 313 314 314 315 316 315 313 312 312 313 313 314 314 313 314 315 315 316 315 316 315 315 315 316 316 316 315 315 313 311 311
322 321 320 319 318 317 315 312 313 313 310 308 306 307 312 313 312 311 311 312 311 310 310 308 309 313 311 308 310 312 314 314 314 314 315 315 315 314 313 311 310 310 312 314 315 314 314 315 315 316 315 316 315 315 315 316 316 316 315 315 314 312 311
324 322 321 320 319 319 315 312 314 314 310 308 308 311 315 315 313 313 313 313 311 310 311 310 311 314 310 309 313 314 314 314 313 313 314 314 314 313 312 311 310 310 311 314 315 314 314 315 315 315 315 315 315 315 314 315 315 315 315 315 314 313 312
324 323 322 321 320 319 316 313 316 316 313 313 313 314 315 314 314 314 314 314 313 312 312 311 312 313 310 310 314 314 314 313 312 313 314 314 314 314 313 314 314 314 313 314 315 316 316 316 316 316 315 315 316 315 315 315 315 315 315 315 315 315 314
324 322 322 321 320 320 319 318 318 317 316 315 315 315 316 314 313 315 314 315 315 314 313 311 313 314 312 311 314 314 315 314 314 315 315 315 316 316 317 317 317 317 317 317 317 317 317 316 316 316 315 316 316 315 315 315 315 315 315 315 315 315 315
324 322 322 321 320 321 322 321 320 319 318 317 315 314 315 315 314 314 314 314 315 316 314 312 314 316 315 315 315 315 316 316 316 317 316 316 317 317 318 319 319 319 319 318 318 318 317 317 317 316 316 316 316 315 315 315 314 315 315 315 315 315 315
325 323 322 322 322 322 322 320 320 320 320 319 317 315 314 315 314 314 314 314 314 315 315 314 314 315 316 316 316 317 317 317 317 318 318 318 319 318 318 319 319 319 318 318 319 318 318 317 317 317 317 316 316 316 316 315 314 315 315 315 315 315 314
325 324 324 323 323 323 323 321 320 320 320 320 320 319 317 316 315 314 314 314 314 313 314 315 315 315 315 316 316 316 316 316 318 319 319 319 320 319 318 318 318 318 318 318 318 318 318 317 317 317 317 317 317 316 316 315 315 315 315 315 315 314 314
326 325 325 324 324 324 324 324 322 321 321 321 320 321 319 318 317 316 315 315 315 314 314 315 315 315 315 315 316 316 316 317 319 319 318 319 320 319 318 317 316 316 317 316 316 316 316 316 316 316 316 316 316 316 316 316 316 315 315 315 315 314 314
325 325 325 325 325 325 324 324 323 322 322 322 321 321 321 319 319 319 317 316 315 315 315 315 315 315 315 316 317 318 317 317 319 319 318 318 319 319 319 318 316 316 316 315 314 315 315 315 315 315 314 315 315 315 316 316 316 315 315 315 315 314 314
324 324 324 324 323 324 324 324 323 322 322 322 321 321 321 319 319 320 319 318 317 316 316 315 315 315 315 315 317 318 318 316 316 318 318 318 319 319 318 317 316 316 315 315 314 314 313 313 313 313 312 312 313 314 315 316 316 316 316 315 314 314 314
321 322 323 322 321 322 322 322 323 322 321 321 321 321 320 320 320 319 319 319 319 318 317 317 316 315 315 315 316 317 316 314 314 316 316 317 318 318 317 316 316 315 314 314 314 314 314 312 311 310 308 306 306 307 309 311 314 315 316 316 314 313 313
320 320 321 321 320 320 320 321 322 321 321 322 322 322 322 322 321 320 319 319 320 319 318 317 317 317 316 315 315 316 316 315 314 314 315 316 316 316 316 316 315 314 313 312 313 314 312 309 307 305 303 302 302 302 303 305 308 310 313 315 314 311 311
317 318 319 320 320 321 321 321 321 322 322 323 323 323 323 322 322 322 321 320 320 319 319 317 317 318 319 317 316 316 316 316 315 314 314 314 315 315 315 314 313 312 312 313 314 313 309 304 304 304 303 302 302 302 303 303 305 308 311 314 314 313 312
313 314 315 317 318 319 320 321 321 321 322 322 322 321 321 321 321 321 322 321 320 320 320 318 316 316 318 319 318 318 317 316 315 314 314 315 315 315 314 314 313 314 314 314 315 312 306 303 304 304 302 302 302 303 303 303 304 306 308 311 312 312 311
311 312 313 314 314 316 317 319 319 319 320 321 321 320 320 319 318 319 320 321 320 320 320 319 317 316 317 318 318 318 317 315 314 314 315 315 316 316 315 314 314 314 314 315 314 311 306 303 303 302 302 303 303 302 303 302 303 303 305 308 309 309 309
309 309 310 311 312 314 315 316 316 317 317 318 318 318 318 318 316 316 317 318 319 319 318 318 318 318 318 318 317 318 318 315 314 314 315 315 316 316 315 315 313 312 312 312 309 306 304 304 304 304 303 303 302 302 302 302 302 303 304 305 306 306 306
308 307 308 309 310 311 312 313 314 315 315 316 317 317 317 318 317 316 316 317 317 317 317 317 317 317 318 318 317 317 317 316 315 315 314 314 315 316 315 314 313 312 310 307 304 303 302 304 306 307 306 304 303 304 304 303 303 303 303 303 303 303 303
305 306 307 308 308 309 309 310 310 311 312 313 314 315 316 317 318 318 318 318 317 316 316 316 316 316 316 317 317 317 317 317 316 315 315 315 315 316 315 314 313 312 308 304 303 302 301 304 306 308 309 308 307 308 308 307 305 305 304 304 302 301 301
301 302 303 304 304 305 306 307 307 308 309 310 311 312 314 315 315 316 317 318 318 316 315 316 316 315 315 316 317 317 318 318 317 315 315 315 314 314 314 312 311 310 305 302 302 302 301 302 305 307 308 308 309 309 309 308 308 307 306 304 301 301 301
298 298 299 299 299 300 300 301 302 304 306 307 308 309 311 312 313 314 315 317 318 317 316 316 316 315 315 316 317 318 317 317 316 315 315 313 313 313 311 308 307 305 303 301 302 301 301 301 302 305 307 307 308 309 309 308 308 306 304 302 301 301 301
297 298 298 299 299 300 300 300 300 301 302 303 306 308 309 310 312 313 314 315 316 315 315 316 316 314 314 314 315 317 317 316 315 315 314 312 312 310 307 304 303 303 302 302 301 301 301 300 300 302 304 303 304 305 306 306 305 303 302 301 300 300 300
298 298 298 298 299 300 301 301 302 302 303 304 305 307 308 309 311 312 314 314 313 313 314 316 315 314 314 314 314 316 317 316 315 315 314 312 310 308 304 302 303 303 302 302 301 301 300 300 300 301 301 301 301 301 301 301 301 301 301 300 300 300 300

ECMWFFLT1_850_thetae_030.txt.gz
Theta_e
316 314 316 318 318 317 316 315 314 315 315 316 316 317 320 320 321 323 323 322 322 323 323 323 322 322 322 323 323 323 323 323 323 324 324 324 325 326 325 325 325 324 324 323 323 322 322 322 323 322 321 321 321 321 320 320 319 319 319 318 317 316 315
315 311 315 316 315 314 312 311 311 311 312 312 312 314 315 316 319 322 321 321 322 322 323 324 324 324 323 323 324 325 325 325 324 324 323 323 323 324 324 325 325 324 324 323 322 322 321 322 322 322 321 320 320 320 320 319 319 318 316 315 314 314 314
313 312 317 317 315 312 310 311 311 310 311 312 314 316 315 314 318 320 320 320 321 322 323 323 324 326 326 325 326 326 325 325 325 324 323 323 323 324 324 324 325 325 324 323 322 321 321 321 321 321 320 319 318 319 320 319 317 316 313 311 311 311 312
312 314 317 318 316 312 311 314 313 312 313 316 320 321 319 317 319 320 319 318 319 321 322 322 322 323 324 326 326 325 323 324 325 324 324 324 324 324 324 324 324 324 324 323 322 322 321 321 320 319 319 318 317 318 319 317 315 313 310 309 309 308 308
312 313 314 315 313 311 312 315 314 314 315 318 322 323 322 322 322 321 321 320 319 321 322 323 322 321 321 324 325 323 321 322 323 323 323 324 323 323 323 324 324 324 324 323 322 322 321 321 320 317 316 316 315 316 316 313 312 311 310 309 309 308 307
313 312 312 312 311 310 313 315 315 315 314 316 321 323 324 323 322 321 321 322 322 322 322 323 323 321 321 323 324 322 320 320 321 322 322 323 323 323 323 324 324 324 324 324 323 322 320 319 318 314 313 314 313 313 313 311 310 310 310 309 309 310 308
312 310 310 309 309 311 314 316 314 314 314 314 317 321 322 321 320 319 320 321 322 323 322 322 321 321 322 323 322 320 319 320 321 321 323 324 324 323 323 324 324 324 324 323 322 322 318 315 312 310 311 313 312 311 312 311 309 308 309 308 309 311 310
311 310 309 309 310 312 314 316 315 315 316 314 314 316 317 316 317 318 319 319 319 320 320 319 321 322 321 321 320 318 318 320 322 322 323 324 323 323 322 322 323 323 324 323 322 321 317 311 310 310 310 312 312 312 312 311 309 308 309 309 309 310 310
312 311 311 312 312 313 315 315 315 317 317 316 314 312 312 314 316 317 318 318 317 318 318 318 321 322 321 321 320 318 319 321 323 323 323 322 321 320 318 318 319 320 322 322 322 322 318 313 311 312 311 311 311 312 312 311 308 307 308 308 309 310 309
314 314 315 315 313 314 316 316 316 316 317 316 314 311 311 314 316 317 318 318 317 317 318 319 321 322 322 322 321 320 321 322 323 322 321 321 320 318 314 313 315 316 318 320 321 321 319 315 312 311 312 311 310 310 310 309 307 308 309 308 309 311 310
317 316 318 317 314 314 317 317 316 317 317 317 315 312 312 314 316 317 317 318 319 318 318 320 322 322 322 322 322 322 323 322 322 320 318 317 318 317 315 314 314 315 316 317 319 320 320 317 313 311 311 311 311 311 310 309 308 308 309 308 309 311 311
318 318 319 318 315 315 317 317 317 318 319 318 316 313 312 313 314 315 315 317 320 320 319 319 321 321 320 320 321 322 322 321 320 318 315 314 314 315 315 314 315 315 315 316 317 319 320 318 315 313 311 311 311 312 311 310 309 309 309 309 310 311 311
320 319 320 319 316 314 316 316 316 319 319 317 314 311 309 310 311 312 314 318 320 321 319 319 320 319 318 318 319 321 322 320 319 317 316 315 314 314 314 314 314 315 315 315 315 316 317 317 315 315 314 312 311 311 311 310 311 310 309 309 311 311 311
321 320 321 319 316 314 315 314 316 319 317 313 310 307 306 308 309 310 315 319 321 321 320 319 319 318 316 315 316 319 321 320 319 318 316 314 313 312 313 313 314 315 315 315 315 315 315 315 315 315 315 314 312 311 310 310 312 312 310 311 312 311 311
322 322 322 319 315 314 313 314 315 315 312 309 308 307 307 308 307 308 314 318 320 320 318 318 318 317 316 313 309 310 314 317 317 315 312 310 309 309 310 311 313 314 314 314 314 314 314 314 314 314 315 315 314 311 310 312 314 314 313 313 313 311 311
324 323 322 319 315 313 312 312 311 310 309 309 308 308 308 307 305 306 311 317 318 317 316 316 316 316 316 311 306 304 307 308 309 309 309 309 308 307 307 309 312 313 314 314 314 314 314 314 314 314 314 315 315 312 312 314 315 314 314 314 313 312 311
324 322 321 318 315 313 311 309 309 309 310 309 308 309 308 308 306 306 308 313 316 315 314 313 313 313 312 308 304 304 304 305 307 309 310 310 310 309 308 308 309 311 312 312 312 313 314 314 315 314 314 315 315 314 314 315 315 315 315 314 313 313 312
323 322 321 319 315 314 311 309 311 311 310 308 309 310 310 310 310 309 309 309 311 312 311 310 309 309 307 306 305 305 306 308 309 310 311 311 310 311 310 310 309 310 310 311 311 312 314 314 315 315 315 315 314 314 314 314 315 315 315 314 314 314 313
323 322 321 317 314 314 312 312 312 311 308 307 309 310 311 311 311 311 311 309 307 308 309 308 308 309 309 309 309 310 310 311 311 311 311 311 310 310 310 310 311 310 311 311 312 312 313 314 315 315 315 315 315 315 314 314 314 315 315 314 314 314 314
322 321 318 314 313 312 310 312 313 310 307 308 310 312 312 312 312 312 313 311 309 309 308 308 310 312 312 312 312 312 313 312 312 311 311 310 310 310 310 310 310 310 311 312 313 313 313 314 314 315 315 315 315 315 314 314 314 315 315 315 314 314 314
322 322 320 318 317 314 311 313 313 310 310 312 313 315 314 313 313 313 313 313 312 311 309 308 309 311 312 312 313 313 313 313 312 311 311 310 310 310 310 310 310 310 311 312 313 313 313 314 314 314 315 315 314 315 315 314 314 314 314 315 315 314 314
322 322 322 321 321 319 316 316 315 313 314 314 314 315 315 313 313 313 314 314 314 314 313 310 309 309 309 310 312 313 313 313 312 311 311 310 310 310 310 310 310 310 311 312 313 313 313 314 314 314 315 315 315 315 315 315 315 314 314 314 314 314 314
323 322 322 321 322 322 320 319 318 317 317 316 315 316 316 314 313 314 314 314 314 315 315 314 312 309 308 308 309 311 312 312 312 312 311 311 310 310 311 311 311 310 312 314 315 314 314 315 315 315 315 315 315 315 315 315 315 315 315 314 314 314 314
323 322 322 321 322 322 321 321 320 320 320 319 318 317 318 316 314 313 314 314 314 315 315 315 314 312 311 310 309 309 310 311 312 311 311 311 311 311 311 311 311 311 312 314 316 316 315 316 316 316 316 316 316 316 315 315 316 316 316 315 315 315 314
323 323 322 321 322 322 323 323 322 321 321 321 320 319 319 318 316 314 314 314 314 314 314 314 314 313 313 313 312 311 311 310 311 311 311 311 312 312 312 312 312 312 312 315 316 316 316 316 316 316 315 315 315 315 314 314 315 315 316 316 315 315 315
323 323 322 322 322 322 323 323 322 321 321 321 321 320 319 318 317 316 316 315 315 314 314 314 314 314 314 313 313 313 313 312 312 312 311 312 313 314 314 314 313 313 314 316 317 317 317 316 316 315 314 314 314 313 313 313 313 314 315 315 315 314 314
322 322 322 321 322 322 322 322 321 320 321 321 322 321 319 319 319 319 319 318 317 316 316 315 315 315 314 314 314 314 314 314 314 313 313 313 313 313 314 314 314 314 315 316 317 318 318 317 316 315 314 314 313 313 312 313 313 313 314 314 313 312 312
320 320 321 320 320 321 320 321 321 320 320 321 321 321 321 321 320 320 320 320 320 319 318 317 316 316 316 315 314 314 314 314 315 314 314 314 314 314 314 314 314 314 315 317 318 318 318 317 316 315 314 314 314 313 313 313 313 313 312 311 310 310 312
318 318 319 319 319 319 319 319 320 319 319 320 320 320 321 321 321 321 320 320 320 320 319 319 318 318 318 317 316 315 315 315 315 315 315 315 315 315 315 315 315 315 316 317 318 318 318 318 317 315 315 315 314 313 313 313 313 312 310 308 308 310 313
314 314 315 315 316 317 318 318 318 318 317 317 317 318 319 319 319 319 319 318 319 319 319 319 320 319 320 320 319 318 317 316 315 315 315 315 315 316 316 317 317 316 317 317 317 318 319 318 317 316 316 315 315 314 313 313 313 311 307 307 310 312 313
312 311 311 312 313 314 314 314 314 315 315 315 315 315 316 317 317 317 317 317 317 317 317 317 318 318 319 319 319 320 320 319 318 317 316 316 317 318 318 318 318 318 318 317 318 319 319 317 316 316 316 315 314 314 314 314 312 308 307 310 312 313 313
309 308 308 309 310 310 311 311 311 312 312 312 313 313 313 314 315 315 315 315 315 315 315 316 316 317 317 317 318 319 319 320 320 319 318 317 317 318 319 319 319 319 318 319 319 318 318 317 316 315 315 315 314 315 314 313 311 308 309 311 312 311 310
303 303 303 303 304 305 306 306 307 308 308 309 310 311 312 312 313 314 314 314 314 314 314 314 315 316 315 316 316 317 318 318 319 319 319 318 318 317 318 318 318 318 318 318 318 317 317 315 314 314 314 314 315 315 314 313 311 309 309 309 308 307 306
300 300 300 301 301 301 302 302 302 303 303 304 305 306 307 307 308 308 309 310 310 311 311 312 313 314 314 314 314 315 315 316 316 317 317 318 318 318 318 318 318 318 318 318 318 317 316 316 314 314 314 315 315 313 311 310 309 308 306 306 305 305 304
300 300 300 300 300 300 300 300 301 301 301 301 301 302 302 303 303 303 303 304 305 305 305 306 308 310 312 313 313 313 313 314 314 315 315 316 317 317 317 318 318 318 318 318 318 317 317 316 315 315 314 315 314 311 308 308 307 306 304 304 304 304 304
299 299 299 299 299 300 300 300 300 300 300 300 300 300 300 301 301 301 301 301 301 301 302 302 303 305 307 309 310 311 312 312 313 315 315 315 315 315 315 316 317 318 318 318 318 318 317 316 316 315 315 314 313 311 309 308 307 306 306 306 306 306 306
299 299 299 299 299 299 299 299 299 299 299 299 299 299 300 300 300 300 300 300 300 299 300 300 301 302 304 305 307 309 310 311 312 313 314 314 313 313 313 314 315 316 317 318 317 317 317 316 316 315 315 314 312 311 310 308 307 308 307 306 306 305 305

ECMWFFLT1_850_thetae_033.txt.gz
Theta_e
323 322 322 320 319 320 320 321 321 321 322 323 323 322 322 323 324 324 323 323 323 324 323 323 323 323 322 322 322 322 323 322 322 322 324 325 325 326 326 324 324 324 324 323 323 323 322 323 324 323 322 322 321 320 319 318 317 316 315 315 315 315 315
324 323 321 319 319 320 318 317 317 317 318 319 321 322 322 321 320 321 322 321 321 322 322 322 322 322 322 322 322 322 322 322 321 322 324 324 325 326 326 324 324 324 324 323 322 322 321 323 323 323 322 321 320 319 318 317 315 313 311 311 313 314 314
325 322 320 320 319 317 314 313 313 314 315 316 318 318 319 318 317 318 320 320 321 321 322 322 322 321 322 323 323 323 323 323 323 323 323 324 324 326 326 325 324 324 324 323 322 322 321 322 322 322 321 321 320 319 318 316 312 310 309 308 309 310 311
324 319 317 318 316 313 311 312 313 313 315 315 315 315 315 314 315 317 319 319 320 321 321 322 323 323 323 323 324 325 325 325 324 324 324 323 323 325 326 325 324 323 323 323 322 322 322 321 321 321 321 320 319 318 317 314 310 309 309 309 307 307 307
321 314 314 315 314 312 312 314 315 315 316 316 317 317 315 313 313 315 317 318 318 319 319 320 322 324 324 324 325 325 325 325 324 324 324 323 323 324 324 324 324 324 323 323 322 322 322 321 321 321 319 319 318 317 314 312 310 309 309 309 308 306 306
321 313 314 315 313 312 312 314 315 316 316 316 318 320 320 319 317 315 314 314 316 317 319 320 320 321 322 323 326 325 323 323 324 324 323 323 324 324 324 324 324 325 324 323 323 322 322 321 321 320 318 317 316 314 312 311 309 309 309 310 309 308 307
322 315 314 313 311 312 313 314 314 314 315 315 317 320 322 322 320 317 314 313 315 318 320 321 321 320 321 323 325 324 321 322 322 322 323 323 324 324 324 323 324 325 325 324 323 322 321 321 320 320 318 316 314 311 311 311 309 309 310 310 311 309 308
321 315 312 311 310 312 314 314 314 314 314 315 317 319 322 321 318 317 317 316 316 318 320 321 320 320 322 323 324 323 321 320 321 321 322 323 323 323 323 323 324 325 325 324 322 321 322 320 319 319 315 313 313 312 311 311 309 309 309 310 311 310 309
317 313 310 310 311 313 314 314 314 315 316 317 317 318 319 319 316 316 318 317 316 317 318 319 318 320 322 323 323 322 320 320 320 321 322 323 323 323 323 324 324 324 325 325 322 322 321 317 316 315 311 309 310 310 311 311 309 308 308 309 310 310 309
317 312 310 309 311 313 314 314 315 316 317 318 318 317 317 316 316 317 318 317 315 315 316 317 318 320 322 322 321 319 318 319 320 321 323 323 323 323 323 323 323 323 324 324 323 322 318 312 311 312 311 310 309 308 310 310 308 308 308 308 309 310 309
318 312 310 311 312 313 314 314 315 316 318 319 318 316 315 315 316 317 317 316 315 314 315 316 319 321 321 320 320 318 318 319 321 322 322 321 320 320 321 321 321 322 322 322 321 321 316 311 310 311 312 312 310 310 311 310 308 308 308 309 309 310 310
317 312 312 313 313 313 314 314 316 317 318 319 318 316 315 315 316 316 316 317 316 315 316 318 320 322 321 321 320 319 319 320 321 322 321 319 317 315 316 317 318 319 320 320 320 320 318 313 311 311 312 312 311 311 311 311 310 309 309 309 310 311 310
316 314 315 315 313 313 314 314 316 316 316 317 316 315 314 313 313 314 315 316 317 315 316 319 321 322 321 321 320 320 320 320 322 321 319 318 316 314 314 315 316 316 317 318 318 319 319 317 313 312 312 312 312 311 311 311 311 311 310 309 310 311 311
316 316 317 316 314 313 314 315 315 315 314 314 313 311 310 309 309 310 311 313 316 316 315 318 321 321 321 321 320 320 321 321 321 319 316 315 315 315 315 315 315 315 316 317 317 317 319 319 316 315 313 313 312 311 311 310 310 311 311 310 311 311 310
318 318 318 318 315 313 314 314 315 314 313 312 310 308 307 307 307 308 309 311 315 317 315 317 319 319 319 321 321 321 321 319 319 318 314 313 313 313 314 314 315 315 315 316 316 316 319 319 317 316 315 314 313 312 311 310 309 311 312 311 312 312 311
320 319 319 319 317 314 314 314 314 314 311 310 309 308 308 307 307 307 308 312 316 318 317 316 317 318 317 317 319 320 321 319 318 318 316 315 314 313 313 313 314 315 315 315 315 315 317 317 316 315 314 314 314 313 312 311 309 312 314 313 313 313 312
321 320 320 320 319 316 314 314 316 314 310 309 309 308 308 308 307 306 308 312 316 317 317 315 316 317 316 315 315 315 317 320 319 319 318 317 315 313 312 313 314 314 314 315 315 314 315 314 314 314 314 314 314 313 313 311 310 312 315 314 313 314 312
322 321 321 321 321 318 316 316 316 313 309 309 309 308 308 308 306 305 306 310 314 315 315 314 314 316 316 316 314 309 309 314 316 316 316 314 311 310 310 311 313 314 314 314 314 314 314 314 314 314 314 314 314 314 313 311 311 313 315 314 314 314 313
321 322 322 322 321 318 315 315 314 311 309 310 309 308 308 308 307 306 306 308 310 312 313 312 313 314 314 314 312 307 304 306 309 310 311 310 309 308 308 309 311 313 314 314 314 314 313 313 313 313 314 314 314 314 313 312 313 314 315 314 314 314 313
321 322 323 322 320 317 314 312 310 310 311 310 308 308 309 309 309 310 310 309 307 308 310 310 310 310 311 310 308 304 304 304 306 308 310 311 310 310 310 310 310 311 312 312 312 312 311 311 312 313 314 314 314 314 314 313 314 314 314 314 314 314 314
323 323 322 321 320 318 314 310 309 311 311 308 307 309 310 311 311 311 312 311 308 306 306 308 308 307 307 306 305 304 305 306 307 310 311 311 312 312 311 311 310 310 310 310 311 311 311 311 312 313 314 314 314 315 314 314 314 314 314 314 314 314 314
324 322 322 320 319 317 313 310 310 310 309 308 309 311 312 312 312 312 312 312 311 310 308 307 307 307 307 306 305 306 307 308 309 310 311 311 311 311 311 311 311 311 310 310 310 311 312 312 313 313 314 314 314 314 315 314 314 314 314 314 314 314 314
323 321 321 319 317 316 312 309 310 310 309 310 312 314 314 313 313 313 313 313 313 313 312 311 309 307 307 308 308 308 309 310 310 311 311 311 311 311 310 310 310 310 310 310 310 310 312 312 313 313 314 314 314 315 315 315 314 315 314 314 314 314 314
322 321 319 318 317 317 314 311 311 312 312 312 314 314 315 315 314 313 313 313 314 314 314 314 313 311 309 308 309 310 310 311 312 312 311 311 310 310 310 310 310 310 310 310 310 310 311 312 313 313 313 314 315 315 315 315 315 315 315 315 315 314 314
321 319 318 319 319 319 317 315 315 315 315 315 315 315 315 316 315 313 313 313 314 314 314 314 314 314 313 311 310 310 310 311 312 313 312 312 312 311 311 311 310 310 310 310 310 311 312 313 314 314 314 315 315 316 315 315 316 316 316 316 315 315 315
320 319 320 321 321 320 319 319 318 317 317 318 318 317 316 316 316 315 314 314 314 314 314 314 314 314 314 314 313 312 312 311 312 312 312 312 312 312 312 311 311 311 311 312 311 312 312 314 315 316 316 316 316 316 316 316 316 316 315 314 314 314 315
321 320 321 321 322 320 320 321 321 319 319 320 320 319 318 317 317 317 315 315 314 314 314 314 314 314 314 314 314 314 314 313 313 313 312 312 312 312 311 311 311 312 312 312 313 313 312 313 314 316 316 316 316 316 316 315 315 314 313 313 313 313 313
321 321 321 322 322 321 320 321 322 321 321 321 321 321 319 318 317 317 317 316 315 315 315 316 315 315 315 314 314 314 314 314 314 314 314 313 313 313 313 313 313 313 313 313 313 313 313 313 314 315 316 317 317 316 316 315 314 313 313 313 313 313 313
319 319 319 320 321 321 321 321 321 321 321 321 321 321 320 319 318 318 318 317 317 317 318 319 319 319 318 318 317 316 315 315 314 314 314 314 314 314 314 314 314 314 314 314 314 313 313 314 314 315 316 317 317 317 316 315 314 314 314 314 314 314 313
314 315 316 318 318 318 318 319 319 320 320 320 320 320 321 320 320 319 319 319 319 319 319 320 320 320 320 320 320 319 319 318 317 316 315 315 315 315 315 315 315 314 314 314 315 314 314 314 315 315 316 317 318 318 317 316 315 314 314 315 314 314 313
309 310 311 313 313 313 314 315 316 316 316 316 317 318 319 320 320 320 320 320 319 319 319 320 320 320 320 320 320 320 320 320 319 318 318 317 316 315 315 315 315 315 315 315 315 315 315 315 315 315 316 317 317 316 316 316 315 314 315 315 314 314 313
306 307 308 309 310 309 310 311 312 313 314 314 315 315 316 317 318 318 318 319 318 318 318 318 318 318 318 318 318 319 319 319 319 319 319 318 318 317 317 316 316 316 315 315 316 316 316 317 317 316 316 317 316 315 314 314 314 314 315 314 314 313 312
305 305 305 306 307 306 306 307 308 309 311 313 314 314 314 315 315 315 315 316 316 317 317 317 317 316 317 317 317 317 317 317 317 318 317 317 318 318 318 318 317 317 316 316 316 317 317 318 317 315 314 315 315 315 314 313 313 314 314 314 314 313 311
303 302 301 302 302 303 304 305 305 305 306 307 309 310 311 311 311 311 311 311 312 313 314 315 315 315 314 314 315 315 315 316 316 316 316 316 316 317 317 317 317 317 317 316 317 317 317 317 317 316 315 315 315 314 313 313 314 314 314 314 313 312 310
300 300 300 300 300 301 301 302 302 302 302 303 303 304 304 305 305 305 305 305 305 306 307 308 310 311 312 312 312 312 313 313 313 314 314 314 315 315 315 315 315 315 316 316 316 316 316 317 317 317 316 315 315 314 314 314 314 314 314 313 312 310 309
299 299 299 299 300 300 300 299 300 300 300 300 301 301 301 301 301 301 301 301 301 301 301 302 303 304 305 306 306 306 307 308 309 310 311 311 312 313 313 314 314 314 316 316 315 315 315 316 317 316 315 315 315 314 314 314 314 313 313 311 310 309 308
298 298 298 298 298 298 299 299 299 299 299 299 299 299 299 299 299 299 299 300 300 299 300 300 300 300 300 301 301 302 302 303 304 305 307 308 309 310 311 312 312 314 315 315 316 316 315 316 316 316 315 315 315 314 314 314 313 312 310 309 308 307 305

ECMWFFLT1_850_thetae_036.txt.gz
Theta_e
326 325 322 320 320 322 324 325 325 324 324 324 323 324 324 325 325 325 325 324 325 325 325 324 324 324 323 322 323 324 324 323 324 326 326 326 326 325 325 324 323 324 324 323 322 322 322 323 324 323 321 320 319 317 316 315 314 314 314 314 314 315 315
327 325 321 320 320 322 324 325 325 324 324 323 323 323 323 323 323 324 323 323 323 324 324 324 324 323 321 321 322 323 323 323 323 324 326 326 326 325 325 325 324 324 324 323 322 322 322 322 323 322 321 319 318 316 314 312 310 310 311 312 313 313 312
327 324 321 320 321 322 322 323 323 323 323 322 322 322 321 321 322 322 322 322 322 323 323 323 322 322 321 321 322 322 322 322 322 322 324 326 326 325 325 325 324 324 324 323 323 323 322 322 322 322 321 319 318 316 312 309 308 308 308 309 309 309 307
326 324 321 321 321 321 320 318 318 319 319 319 319 320 320 320 320 321 321 321 322 322 322 322 322 321 321 322 322 322 322 322 322 321 322 324 325 325 326 326 325 323 323 323 323 322 322 322 322 321 321 319 318 315 311 308 308 308 307 306 306 306 306
324 322 321 321 321 319 317 315 314 314 314 315 316 316 316 317 318 320 320 321 321 321 322 323 323 322 322 322 322 323 323 324 323 322 322 323 323 324 325 326 325 324 323 323 322 322 321 321 321 321 320 319 317 314 310 308 308 308 308 307 307 307 306
323 321 320 321 319 316 316 316 315 315 315 315 316 315 315 315 317 319 319 319 319 319 320 322 323 324 324 324 324 324 324 324 324 324 323 323 322 322 324 325 325 324 324 323 322 322 322 321 321 321 320 319 316 312 309 308 309 309 310 309 309 308 308
325 321 320 321 319 315 317 318 318 318 317 317 317 317 316 315 315 315 316 316 317 318 319 321 322 322 322 323 324 325 324 322 323 324 324 324 323 322 323 325 324 324 324 324 323 322 322 321 321 320 319 318 315 311 308 308 309 310 310 310 310 309 309
326 322 320 320 318 316 318 318 317 317 317 317 318 318 318 316 314 312 313 314 315 318 320 321 321 320 320 322 323 324 322 320 322 323 322 323 323 323 323 324 324 324 324 324 323 323 322 321 321 320 319 317 313 310 308 308 310 310 310 310 310 309 309
326 324 320 319 318 315 316 316 316 315 315 316 318 318 317 316 313 311 312 314 315 317 319 320 320 319 320 321 323 323 320 319 320 321 321 321 322 323 323 323 324 324 324 324 324 323 322 321 320 319 319 315 310 308 308 309 309 309 310 310 310 309 309
326 324 320 317 316 314 314 315 315 315 316 316 317 316 314 313 312 312 312 313 314 315 316 318 318 319 321 322 322 322 319 319 320 320 320 321 322 322 322 323 323 324 324 324 324 322 321 321 319 318 317 313 308 307 308 308 309 309 309 310 310 309 308
325 323 319 316 314 313 314 315 315 316 316 317 317 315 313 312 313 313 312 312 313 314 314 315 316 319 321 321 321 320 319 319 320 320 320 321 322 322 322 322 323 323 323 323 324 322 321 320 317 315 314 311 308 307 308 308 309 309 309 309 310 310 309
324 321 317 313 312 313 314 315 316 316 317 318 318 315 313 313 314 314 313 312 312 314 315 315 317 320 321 320 321 320 319 320 320 321 321 322 322 322 322 322 322 322 322 323 323 322 321 317 313 313 312 310 309 309 309 309 309 309 309 309 310 311 309
324 320 314 311 311 313 314 314 316 316 317 319 318 315 314 314 314 315 316 315 313 313 316 318 319 321 321 321 321 320 320 321 321 322 322 321 320 320 320 321 321 321 321 322 321 321 319 314 311 311 311 310 310 310 310 310 310 310 310 309 310 311 310
325 319 312 311 312 313 314 314 315 316 317 319 318 315 314 314 315 316 317 317 314 312 316 320 322 322 322 321 321 320 321 321 321 321 320 319 316 315 316 317 318 319 320 320 320 319 317 314 312 311 310 311 312 311 311 311 310 310 310 309 310 311 311
325 318 313 314 313 313 314 314 315 315 317 318 316 314 313 312 313 314 315 317 315 311 314 319 321 321 320 320 320 320 322 322 320 318 318 318 316 314 315 315 315 316 317 318 319 319 318 316 315 313 312 312 313 313 312 311 310 310 310 310 310 311 312
324 317 315 316 314 313 314 314 314 315 317 318 315 312 311 310 310 311 313 316 315 312 313 317 319 319 318 318 320 321 322 320 317 316 315 315 315 315 315 315 315 315 315 316 317 318 319 318 317 316 315 315 314 314 313 312 310 309 310 311 311 311 312
323 317 316 317 316 314 313 314 314 314 317 318 315 312 310 308 308 309 311 314 315 313 313 314 316 318 317 316 318 320 321 319 316 315 315 315 314 314 314 314 315 315 315 315 315 316 317 318 319 319 317 316 315 314 313 312 311 309 309 311 312 312 313
323 319 317 319 318 316 314 314 314 314 314 314 312 310 309 308 308 308 308 311 313 314 314 313 314 316 317 316 315 316 317 318 318 318 317 317 316 315 315 314 314 314 314 315 314 315 315 316 318 317 316 315 314 314 314 313 312 311 309 310 313 313 313
323 320 319 320 319 318 316 315 314 313 312 310 310 309 309 308 308 307 306 307 310 314 315 313 313 315 316 316 315 314 312 313 316 319 319 318 316 315 314 312 312 313 314 314 314 314 314 315 315 314 314 314 314 314 314 314 313 312 310 310 313 314 313
322 321 321 321 321 320 319 317 316 314 311 309 310 309 308 308 308 308 307 307 309 312 314 313 313 313 314 314 315 314 311 308 309 314 316 315 313 312 310 309 311 313 313 314 314 314 314 314 313 313 313 313 313 313 314 313 313 312 310 311 313 314 314
322 322 322 322 322 322 321 319 316 313 310 310 309 308 308 309 309 310 311 310 309 309 310 311 311 311 311 311 311 311 310 307 306 308 310 311 311 311 310 309 310 312 313 314 314 314 314 313 313 313 313 313 314 314 314 314 313 312 312 313 314 314 314
321 321 322 323 322 322 322 320 315 311 310 310 309 308 309 310 310 311 311 311 311 309 308 308 308 309 309 309 309 308 307 305 305 306 308 310 311 312 313 312 312 312 313 313 313 313 313 313 313 313 313 313 314 314 314 314 314 314 314 314 314 314 314
319 318 320 322 322 322 322 320 314 310 310 310 308 309 311 311 311 311 311 312 312 312 311 310 309 309 308 308 308 308 307 306 305 306 308 311 312 313 314 314 314 314 314 314 313 313 313 313 313 313 313 313 314 314 314 314 314 314 314 314 314 314 314
319 319 320 321 322 322 322 320 314 310 310 310 308 310 313 313 313 313 312 312 313 313 313 313 313 312 310 309 308 308 308 308 307 308 309 311 312 312 313 314 313 313 313 313 313 312 312 312 312 312 313 314 314 314 314 314 314 315 314 314 314 314 314
319 320 320 321 322 322 321 319 314 310 310 310 309 311 313 314 314 314 313 313 313 313 313 314 314 314 313 312 311 310 310 309 309 310 310 311 311 312 312 312 312 313 313 312 312 311 311 311 310 310 311 312 313 314 314 314 314 315 315 315 315 315 315
319 320 320 321 322 321 319 317 313 310 310 311 311 312 313 314 315 315 314 313 313 313 314 314 314 314 314 314 313 313 313 312 311 311 311 310 310 310 310 310 311 311 311 312 311 311 311 311 311 311 311 312 313 314 315 316 316 315 315 315 315 315 316
320 321 321 320 319 318 317 316 314 312 313 314 314 314 314 315 316 316 315 314 313 313 313 314 314 314 313 313 314 314 314 313 313 313 312 312 312 311 311 311 311 311 311 311 311 311 311 311 312 312 312 313 313 314 315 316 316 317 316 316 316 316 315
320 320 319 318 318 318 318 318 318 317 318 318 318 317 317 316 316 316 316 315 315 315 314 314 314 314 314 313 313 314 314 314 314 314 314 314 313 313 313 313 313 313 313 312 312 312 313 313 313 313 313 314 314 314 314 315 316 316 317 317 316 315 314
319 318 318 318 318 318 319 320 319 319 320 320 320 320 320 319 318 317 317 316 316 316 316 315 315 314 314 314 314 314 314 314 314 314 314 314 314 314 314 314 314 314 314 314 314 314 314 314 314 314 314 314 314 314 315 315 315 316 317 317 317 315 314
316 314 316 318 318 317 318 318 317 318 318 319 320 320 320 320 320 319 318 317 317 317 317 317 316 316 316 316 316 316 316 316 315 315 315 315 314 314 314 314 314 314 314 314 314 314 314 314 315 315 315 315 315 315 315 316 316 317 317 317 317 316 315
311 310 312 315 316 316 316 315 315 316 317 317 317 318 318 318 319 319 319 318 318 318 318 318 318 318 318 318 318 318 318 318 318 317 317 316 316 316 315 315 315 315 315 315 315 315 315 315 315 315 316 316 316 316 316 316 317 317 317 317 316 315 314
308 308 309 311 312 313 313 311 310 312 314 313 312 313 314 315 317 318 318 319 319 319 319 319 319 319 319 319 319 319 319 319 319 319 319 318 318 318 317 317 317 317 316 316 315 315 315 315 315 315 316 316 316 316 316 316 316 316 315 314 313 313 313
307 307 308 309 309 310 310 309 308 308 310 310 309 309 310 311 312 313 315 317 318 318 319 318 318 318 318 318 318 318 318 318 318 318 318 318 318 318 318 318 318 318 318 318 317 317 317 316 316 316 316 316 316 316 315 315 316 315 314 313 313 314 314
304 304 304 305 305 305 306 307 307 307 308 309 310 310 310 309 309 309 310 311 312 313 315 315 315 315 315 315 316 316 316 316 316 316 316 316 317 317 317 317 317 317 317 317 317 318 318 318 318 318 317 317 316 315 315 315 315 315 314 314 314 313 313
300 300 301 301 301 301 302 302 302 303 304 305 305 306 307 307 308 308 308 307 307 307 308 309 310 311 311 311 311 312 312 312 312 313 314 314 314 314 314 314 315 315 315 315 316 316 317 317 317 316 316 315 315 314 315 315 315 314 314 314 314 313 312
299 299 299 299 299 299 299 299 300 300 300 301 301 301 302 302 303 304 304 304 304 303 303 304 304 305 305 305 306 306 307 308 308 309 310 311 312 312 312 313 313 313 312 312 313 314 314 315 315 314 314 314 315 315 316 316 315 315 315 314 313 313 313
298 298 298 298 298 298 298 298 298 299 299 299 299 299 299 299 300 300 300 300 300 300 300 300 300 301 301 301 301 302 302 302 303 303 304 305 306 306 307 308 309 310 310 310 310 310 311 312 313 313 314 313 314 315 316 316 316 315 315 314 313 313 313

ECMWFFLT1_850_thetae_042.txt.gz
Theta_e
331 330 330 330 329 328 326 326 325 326 325 326 326 326 326 327 327 328 327 327 327 327 326 326 325 324 326 330 330 330 331 330 329 329 328 327 327 326 324 326 327 327 328 328 327 326 326 327 325 324 325 324 323 319 316 315 316 317 315 313 313 314 315
331 330 329 329 328 326 326 325 325 326 326 326 325 324 325 325 327 328 328 327 327 327 327 327 325 324 326 328 327 328 330 330 330 330 329 328 328 327 325 326 328 328 328 328 327 326 326 326 325 325 324 322 320 318 317 317 315 314 314 314 313 312 310
330 329 329 327 325 324 325 325 325 326 325 325 324 323 323 323 325 327 327 328 327 326 327 326 325 325 325 324 323 325 327 329 330 330 331 329 328 328 327 327 328 327 327 327 327 326 326 326 326 325 323 322 321 318 316 315 315 314 315 315 312 309 307
329 329 328 326 324 326 327 326 325 325 325 324 323 323 322 322 323 325 326 328 327 326 326 326 325 325 324 323 322 324 324 326 329 330 330 329 327 327 328 328 327 327 326 327 326 326 326 326 325 325 324 322 321 318 314 312 312 313 313 312 309 306 307
328 325 324 322 322 326 329 327 325 326 326 324 322 322 322 321 322 322 323 326 326 326 326 326 325 325 325 323 322 323 324 325 327 328 329 329 326 327 328 328 327 327 326 326 326 325 325 326 325 325 324 322 320 317 312 310 310 310 310 309 307 307 307
327 322 320 320 321 324 328 328 326 327 328 326 324 323 321 320 320 320 321 322 323 324 325 326 326 325 325 324 322 323 324 324 325 325 327 329 327 328 329 328 327 327 326 326 326 325 325 326 325 325 323 321 320 317 312 310 309 309 309 308 308 308 307
326 322 319 320 322 324 327 327 325 327 327 324 322 322 320 319 319 320 319 319 321 323 324 325 325 324 324 324 323 322 323 325 324 324 325 327 327 328 329 328 327 327 327 326 326 326 326 325 325 324 323 321 319 316 313 312 310 310 309 309 308 308 307
325 323 319 318 321 323 323 322 322 324 324 322 321 320 319 318 318 319 318 318 319 321 322 323 325 324 322 323 325 324 323 325 324 323 325 326 327 328 328 328 327 327 327 326 326 326 325 325 325 325 323 321 318 315 313 312 311 312 311 309 308 308 307
325 324 320 317 318 317 318 320 321 323 324 322 320 319 318 318 318 318 318 318 318 318 319 320 324 325 322 323 327 327 326 326 325 324 326 327 327 326 326 327 328 327 327 326 325 325 325 324 324 324 322 319 317 315 314 312 313 313 311 309 309 307 308
324 323 318 316 316 314 316 319 320 320 320 318 317 318 318 318 318 318 317 318 317 317 318 318 321 324 323 324 328 329 328 327 324 324 326 327 328 326 325 326 327 327 327 326 325 325 325 325 324 323 321 318 316 315 314 313 314 314 312 311 310 308 307
322 321 318 316 316 316 317 317 317 316 316 317 317 317 317 317 317 317 317 318 318 318 318 318 319 320 321 323 326 328 329 325 322 323 324 326 327 327 326 325 326 328 327 325 326 326 325 325 324 322 320 318 315 313 313 314 315 314 313 313 312 309 308
322 320 317 316 317 318 319 318 318 318 317 318 319 318 319 318 316 317 318 318 318 318 318 318 319 318 319 321 323 325 326 323 321 323 323 324 326 326 326 325 327 328 326 325 325 325 324 325 323 321 319 318 316 313 313 313 314 315 315 314 314 312 309
322 320 318 317 319 321 320 320 321 319 317 318 319 318 320 320 316 317 318 317 317 317 317 317 318 318 319 320 322 324 324 320 320 322 322 322 323 325 326 326 327 328 326 324 325 324 322 323 323 320 318 317 316 314 314 313 314 316 316 315 315 313 311
324 322 320 318 320 322 321 322 323 319 316 316 315 316 320 321 318 318 319 319 319 316 315 316 316 317 320 321 323 325 322 319 321 323 322 321 322 325 327 327 327 327 325 325 325 322 321 321 321 319 318 317 315 314 315 314 314 316 316 315 315 314 312
325 324 322 321 321 322 321 322 322 319 315 311 311 316 320 318 318 319 320 321 320 316 315 316 315 318 323 322 321 322 320 320 323 323 321 321 322 324 326 327 328 326 324 325 325 321 319 319 318 317 317 316 315 314 314 314 314 315 315 314 315 315 313
326 325 323 322 322 322 321 321 320 320 316 310 313 319 318 314 316 319 320 320 319 317 318 318 317 320 324 324 322 320 318 320 322 321 320 321 321 321 323 326 327 324 323 325 324 321 319 318 317 317 317 316 316 315 314 314 314 315 315 314 314 315 314
327 326 324 323 321 320 320 320 320 322 319 315 317 319 316 313 314 316 318 320 319 318 320 320 319 321 323 323 323 321 319 321 321 321 320 320 319 318 319 321 324 323 323 324 323 321 319 318 317 317 316 317 317 316 315 315 314 314 315 315 314 314 314
327 326 325 323 320 319 319 319 321 322 320 318 317 315 313 313 314 315 318 320 319 319 320 320 321 322 322 321 322 321 320 320 321 321 320 319 318 318 318 318 318 319 321 323 322 320 319 317 317 317 317 316 317 317 316 315 315 315 315 315 315 314 314
327 327 324 321 319 318 318 319 320 321 321 320 316 313 314 315 317 319 320 320 320 319 320 320 320 321 321 321 321 320 319 318 319 320 319 318 317 318 318 318 315 314 317 319 320 320 318 316 317 318 317 316 317 317 316 316 316 316 316 315 315 315 314
326 326 323 320 318 318 318 319 320 322 322 320 315 314 315 316 318 320 320 320 320 319 319 319 320 319 320 320 321 320 319 317 317 317 317 317 317 316 317 317 316 314 315 316 317 317 317 317 318 319 319 318 317 317 316 317 317 316 316 316 316 316 315
324 324 322 318 318 319 319 320 321 322 321 318 314 315 315 313 314 316 317 318 318 318 318 318 318 318 318 318 319 320 319 318 318 317 316 316 316 315 317 317 317 316 315 315 315 315 315 316 316 318 319 318 318 318 317 317 317 317 316 317 316 316 316
324 323 320 318 320 320 320 320 321 321 318 315 313 314 314 312 312 313 314 316 316 317 317 317 317 317 317 317 318 318 318 318 319 318 318 318 317 317 318 318 318 317 315 315 315 314 314 314 315 317 318 316 316 317 317 317 317 317 317 316 317 316 316
324 322 320 320 321 320 320 321 321 320 316 312 311 312 312 313 314 314 314 314 314 313 314 314 314 314 315 315 316 317 317 316 316 317 318 319 319 318 317 315 314 313 313 314 314 314 314 314 315 317 317 315 314 316 317 318 317 317 317 317 316 316 316
323 321 319 320 321 320 321 321 321 319 315 311 310 310 313 315 316 315 315 314 311 310 310 310 310 311 312 312 313 315 316 316 315 315 316 318 318 317 315 314 312 309 309 312 313 314 314 314 314 314 314 313 314 315 317 318 318 317 317 316 316 316 316
322 320 319 321 321 320 321 321 320 317 313 310 309 310 313 316 315 314 314 313 312 312 311 310 309 310 310 310 310 312 315 316 315 314 315 316 317 316 316 317 316 313 311 312 313 313 313 313 313 313 313 312 312 312 313 314 315 317 317 317 316 316 316
321 320 320 321 320 320 321 320 319 316 312 310 310 311 313 314 313 312 312 312 313 313 312 312 311 310 311 311 310 311 314 316 315 316 316 316 317 318 318 319 318 317 315 313 314 314 315 314 313 313 312 312 311 311 311 311 311 313 315 317 317 318 317
320 320 320 320 320 320 320 319 318 316 313 311 310 311 312 312 312 312 312 313 313 313 313 313 313 312 312 312 311 312 314 314 314 315 316 315 315 317 317 318 318 318 316 314 314 314 315 315 314 312 312 311 311 311 311 312 312 312 313 314 316 317 318
320 320 320 319 319 319 319 319 318 317 316 314 312 311 312 312 312 313 313 314 314 313 313 313 313 313 313 313 313 313 313 313 313 314 314 313 313 314 314 315 316 317 317 315 314 313 313 314 314 312 312 312 311 311 311 311 312 313 313 313 314 316 317
319 319 319 318 318 317 317 318 317 317 317 315 314 313 312 312 313 314 314 315 315 314 314 313 313 313 313 313 314 313 313 314 314 313 313 313 313 313 313 313 313 314 315 315 314 313 313 313 313 313 313 313 313 314 314 313 313 313 314 314 314 315 316
317 318 318 317 317 317 317 317 317 317 317 316 316 315 313 312 314 316 316 316 316 316 315 315 315 315 315 315 315 315 315 316 315 315 315 315 315 314 314 314 314 314 314 314 314 313 313 313 313 313 314 315 315 316 316 315 314 314 314 314 314 315 315
315 316 316 316 316 316 316 316 316 316 316 316 316 315 314 313 316 318 318 317 318 317 317 317 317 317 316 317 317 317 317 317 317 317 317 317 318 317 317 317 317 317 317 316 315 315 315 315 315 315 315 315 316 317 317 317 315 314 314 314 314 315 314
314 314 314 315 315 315 315 315 315 315 316 316 316 315 315 315 316 317 318 317 318 318 318 318 318 318 318 318 317 318 318 317 317 318 317 317 317 317 317 318 318 318 318 318 318 318 318 317 317 317 317 317 318 318 319 319 319 317 316 316 316 316 315
312 312 312 313 313 314 314 314 313 313 314 315 316 315 314 314 314 315 316 316 317 317 317 317 316 317 317 317 317 317 317 316 316 316 315 314 314 314 314 315 316 316 316 317 317 317 317 317 317 318 318 318 318 318 318 319 318 318 318 318 317 316 316
309 309 309 309 309 310 311 311 312 313 313 313 314 313 313 313 313 313 314 315 315 316 316 314 314 314 314 315 314 314 313 312 312 311 311 309 308 308 309 310 310 311 312 313 313 314 314 315 315 315 315 316 316 316 317 317 317 316 317 317 316 316 316
304 304 304 303 302 303 303 304 306 308 309 310 311 311 312 312 312 312 312 313 313 313 313 312 312 312 311 311 311 310 310 310 310 309 308 306 304 303 304 304 305 306 306 306 307 308 309 309 310 311 311 312 313 313 314 315 315 315 316 316 316 316 316
300 300 300 300 300 300 300 300 300 301 302 303 304 304 305 306 306 306 307 308 309 309 308 308 309 309 308 307 308 308 309 309 309 309 307 305 303 302 301 302 302 303 302 302 302 302 302 303 303 304 305 306 307 308 309 309 310 311 312 314 315 316 316
298 298 299 299 299 299 299 299 299 299 299 299 299 299 300 300 300 301 301 302 302 302 301 301 302 302 302 302 303 303 304 305 305 305 305 303 302 301 300 300 300 300 300 300 300 300 300 300 300 300 300 300 301 301 302 303 304 304 305 307 309 312 314

ECMWFFLT1_850_thetae_045.txt.gz
Theta_e
329 328 328 327 326 326 326 329 330 329 328 328 328 329 331 331 330 329 328 327 327 326 327 331 332 330 330 331 329 329 331 330 330 330 330 330 328 327 327 325 325 327 327 326 326 326 327 328 327 327 326 325 320 318 318 318 319 319 317 316 316 317 317
329 329 328 325 325 324 324 328 330 328 327 326 327 329 330 330 330 329 328 328 328 328 329 331 332 330 330 331 329 329 331 330 330 330 330 330 328 328 329 326 326 328 327 326 326 326 326 326 327 327 326 325 322 318 318 317 318 318 316 315 315 314 314
327 328 328 326 324 324 326 329 329 328 327 325 325 326 327 329 330 329 328 328 327 328 329 331 332 330 330 331 330 330 331 329 329 330 329 329 328 328 328 327 328 328 327 327 326 326 326 325 326 326 326 325 323 320 318 317 317 316 316 315 313 313 312
327 328 328 326 324 326 329 329 327 327 327 325 324 322 323 327 329 330 330 329 328 327 328 331 333 331 330 331 330 329 329 327 328 329 328 328 328 328 327 327 328 328 327 327 327 326 327 326 326 326 325 324 323 320 318 317 316 315 315 314 312 312 312
327 327 326 325 326 329 330 328 327 327 326 325 324 321 321 323 325 328 330 330 329 328 328 330 333 332 331 331 331 329 329 328 328 328 328 327 327 327 327 326 327 327 327 327 326 326 326 326 326 326 325 323 322 320 317 315 315 314 314 312 312 311 311
325 325 324 326 328 329 328 327 327 326 325 325 324 322 322 322 322 325 327 329 329 328 328 329 330 332 332 331 331 330 329 329 328 327 326 326 326 326 325 326 327 327 327 327 326 326 325 325 326 326 324 322 321 318 315 313 313 312 311 311 311 311 310
323 323 324 326 329 330 327 325 325 324 325 325 322 322 323 322 321 321 323 325 326 327 328 328 328 329 330 331 331 330 328 329 329 328 326 325 325 324 322 325 327 327 327 326 325 325 325 324 325 325 323 322 320 315 313 312 311 311 310 311 310 310 311
323 323 324 326 329 329 324 322 324 326 327 326 325 324 323 321 320 321 321 321 322 324 326 328 327 328 327 328 330 329 328 328 329 329 326 325 325 323 323 325 327 327 327 326 325 325 325 325 325 325 323 322 319 315 313 311 311 311 311 311 310 310 311
323 323 325 326 328 327 324 323 326 329 329 328 328 325 321 317 317 320 320 320 321 322 324 326 327 327 326 327 329 328 328 329 329 328 327 327 326 325 325 326 326 327 327 326 325 325 325 325 326 325 323 321 318 315 313 312 312 312 311 310 311 310 311
322 323 325 327 328 327 327 326 328 330 329 328 328 326 321 316 316 318 318 318 320 319 321 322 324 326 325 326 328 328 328 329 328 327 327 327 327 326 326 327 326 326 326 326 326 325 325 325 325 325 322 320 318 316 314 314 313 312 311 310 311 310 311
323 324 324 328 329 327 327 326 327 329 328 326 326 325 321 316 317 318 317 317 318 317 318 318 321 325 325 325 328 328 328 328 327 327 326 327 328 326 325 326 326 326 327 326 326 326 325 324 324 324 322 319 317 316 315 315 315 313 311 311 311 310 311
325 324 323 327 327 325 326 327 327 327 326 323 321 320 318 316 316 316 314 317 320 318 319 319 322 325 324 325 329 329 328 327 326 327 327 326 327 326 325 326 325 326 327 326 326 326 326 325 324 323 321 319 317 316 315 315 316 314 312 313 312 310 311
325 323 323 326 325 324 327 328 326 323 320 317 314 313 315 315 315 314 316 321 323 321 321 321 323 324 323 324 327 329 329 327 326 328 328 327 327 326 326 326 325 326 327 326 326 327 326 326 325 322 321 319 317 315 315 315 316 315 315 315 314 312 311
326 325 325 326 325 326 327 326 323 317 316 316 314 315 320 321 319 319 322 325 325 323 323 322 322 322 323 325 326 328 329 327 326 328 328 328 327 326 327 327 326 327 327 326 326 326 325 325 324 321 320 319 317 315 315 315 316 316 316 316 315 313 312
327 326 326 326 326 327 326 324 321 319 322 324 321 322 325 325 324 324 325 325 325 325 324 324 323 322 324 326 326 326 327 327 327 327 326 326 327 327 327 326 326 326 326 326 326 324 323 323 322 320 318 318 316 315 315 316 316 317 317 317 317 315 313
326 327 326 325 326 327 327 326 326 325 325 325 324 324 326 325 324 324 324 324 324 324 323 324 325 324 323 325 327 327 327 326 326 325 326 325 325 327 328 327 326 326 326 326 325 323 322 322 320 318 318 317 315 314 316 316 316 317 317 317 317 316 315
326 327 326 325 326 327 328 327 327 327 325 323 324 325 325 324 324 324 324 323 323 324 324 324 325 325 324 326 327 327 326 326 325 324 325 324 323 326 327 326 326 326 325 326 325 323 321 321 319 317 317 317 315 314 315 316 316 317 317 317 317 316 316
327 328 325 326 327 327 328 327 325 325 324 323 324 325 323 323 323 323 323 323 323 323 324 324 324 325 325 325 326 326 325 325 324 323 323 322 322 324 325 326 327 327 326 327 326 323 321 320 319 317 317 317 316 315 315 316 316 316 317 316 316 315 316
328 329 326 327 328 327 327 327 325 325 325 325 325 324 323 323 323 323 323 322 322 322 322 322 323 324 323 324 324 324 323 323 323 323 322 321 321 322 323 324 325 327 327 327 326 322 321 320 319 317 317 317 317 316 316 316 316 316 316 316 316 315 315
327 328 327 327 327 327 326 325 325 325 325 325 325 324 323 322 322 323 323 322 321 320 321 321 321 322 323 323 323 323 322 322 322 322 321 320 320 321 321 322 322 324 325 326 325 323 321 320 319 318 318 317 317 317 317 317 317 317 317 317 317 316 316
327 327 325 324 324 324 323 324 326 326 325 325 324 323 323 322 322 323 323 322 320 320 320 320 320 321 321 321 322 322 322 322 321 321 321 320 320 320 320 321 321 321 322 323 323 323 322 321 320 319 318 318 317 317 318 318 318 317 317 317 317 317 317
327 326 324 323 323 322 322 325 326 326 325 324 323 322 322 322 322 322 322 321 320 319 319 319 319 320 320 319 320 321 322 322 321 321 321 320 320 320 320 321 321 320 321 321 321 322 322 322 322 321 320 320 319 319 319 319 318 318 318 318 318 318 318
326 326 325 324 324 325 325 325 326 326 325 323 322 322 321 320 320 320 319 320 320 319 319 318 318 319 319 319 318 319 320 321 321 320 321 320 321 321 320 321 320 320 320 319 318 319 319 320 321 322 321 321 321 320 320 319 319 318 318 318 318 318 318
325 325 324 322 323 324 324 325 325 325 324 322 321 320 319 318 318 317 318 320 319 318 318 318 317 317 318 318 318 318 319 319 319 319 319 320 321 321 320 320 320 319 319 318 317 316 315 316 317 319 320 321 321 320 320 319 319 319 318 318 318 318 318
324 325 323 321 320 321 323 324 323 323 322 322 321 319 318 318 318 318 319 319 316 313 312 313 314 314 315 316 317 318 318 319 319 318 318 318 319 320 319 319 319 319 317 316 315 315 314 314 314 316 318 319 319 319 319 319 319 320 319 319 318 318 318
323 324 322 319 319 320 321 323 322 321 321 320 320 320 320 319 320 320 318 315 311 309 308 309 309 310 312 313 314 315 317 318 318 318 317 317 318 318 318 318 319 319 318 315 314 315 316 315 314 314 315 316 317 316 315 316 318 320 320 320 319 319 318
323 322 320 319 320 321 321 322 321 320 317 315 316 319 320 320 320 318 315 312 311 311 311 310 309 309 310 311 311 312 316 318 317 317 318 318 318 319 319 319 319 319 319 318 315 316 317 318 318 316 314 314 313 313 312 312 314 316 316 317 318 319 319
322 320 319 319 320 320 321 321 321 318 314 310 311 314 315 316 316 315 313 312 312 313 312 312 312 311 311 312 310 310 315 318 317 317 319 318 318 319 320 320 320 319 320 320 318 317 317 319 320 320 319 318 316 315 315 313 312 312 312 312 313 315 315
320 319 319 320 321 321 321 321 320 317 314 312 312 312 312 313 313 313 313 313 313 313 313 313 313 313 313 313 312 313 315 317 318 319 319 318 317 318 318 318 319 319 319 320 319 318 317 316 317 317 318 319 319 319 318 317 316 315 313 312 311 312 312
319 319 320 320 319 319 319 318 318 318 316 315 315 315 314 313 312 313 313 314 314 314 313 313 313 313 313 313 313 315 317 318 319 320 320 318 318 319 318 316 316 318 319 318 317 317 316 315 314 314 314 317 319 320 319 319 319 318 317 316 314 313 313
319 318 318 318 317 317 317 316 317 317 317 317 317 316 315 314 313 313 313 315 315 314 313 314 314 313 314 314 314 315 317 318 319 320 319 318 318 319 318 316 316 317 317 316 316 316 315 315 314 314 314 315 316 318 319 319 319 318 319 318 316 315 314
317 317 317 317 317 316 316 316 316 317 317 317 316 316 315 315 314 314 315 316 316 316 316 316 316 316 316 316 315 316 316 316 317 318 318 317 318 318 318 317 317 318 318 317 317 317 317 317 317 317 316 316 316 317 318 319 317 317 318 317 317 316 316
316 316 315 316 316 316 316 316 316 316 316 316 316 316 316 316 316 316 317 318 318 318 318 318 318 318 318 317 318 317 317 316 316 316 317 317 316 316 316 316 316 316 317 317 317 317 317 317 317 317 317 317 317 317 318 318 317 317 317 316 316 316 316
314 314 314 314 313 314 314 314 315 315 315 314 314 314 313 314 314 315 315 316 315 316 317 317 316 316 316 317 317 317 317 317 316 315 315 315 314 313 313 314 314 314 314 314 313 312 312 311 311 312 312 313 314 314 314 314 315 315 315 315 315 315 315
311 312 312 312 311 311 311 312 312 312 312 312 311 310 310 310 311 311 312 312 312 313 314 314 313 313 313 313 313 313 314 314 313 312 312 311 310 309 310 310 310 310 310 308 307 306 305 306 306 306 307 307 308 308 309 310 310 311 311 312 313 314 314
306 306 305 305 305 306 307 308 310 310 311 310 309 308 309 310 310 311 311 311 311 311 312 312 312 312 311 311 311 311 311 311 310 309 309 308 307 307 307 307 308 308 308 307 306 304 303 303 303 303 303 303 303 303 303 304 304 304 305 305 306 307 308
300 300 300 299 300 301 300 301 302 303 305 306 306 305 305 306 307 307 306 305 305 305 305 305 305 305 305 305 305 306 306 306 305 303 303 303 303 303 303 303 304 305 305 305 305 303 301 301 300 300 300 300 300 301 301 301 301 301 301 301 300 301 301

ECMWFFLT1_850_thetae_048.txt.gz
Theta_e
331 330 328 328 328 327 326 327 327 328 329 330 331 332 331 330 329 330 330 329 329 329 327 326 327 329 331 331 331 330 329 329 330 328 326 326 327 327 327 327 326 327 328 328 328 327 327 327 327 326 324 321 321 321 321 320 319 319 319 319 320 321 322
330 329 327 327 327 327 327 327 328 329 330 331 331 332 332 330 329 329 329 328 328 328 327 327 328 329 330 331 331 331 329 329 328 328 327 327 327 326 326 326 326 328 328 327 328 327 326 326 327 326 323 320 320 320 320 319 319 317 317 318 319 320 322
328 327 327 326 326 327 327 327 328 329 330 331 331 331 331 330 330 329 329 328 328 327 327 330 330 330 329 330 331 330 329 329 327 327 328 328 327 327 326 325 326 328 327 326 327 327 327 326 326 327 324 321 319 318 318 318 318 317 316 316 315 316 318
325 327 328 328 327 327 326 326 327 329 330 330 330 330 330 330 330 329 329 329 329 328 328 331 331 331 329 329 330 329 328 329 328 328 329 329 328 327 327 326 326 328 327 326 327 327 327 326 326 327 326 323 320 318 318 317 317 316 315 314 313 313 314
324 326 328 327 326 325 324 324 326 328 330 330 328 327 327 328 329 329 329 330 330 329 330 331 331 331 330 328 329 329 327 327 328 329 329 329 329 328 327 326 326 327 327 326 327 326 326 326 326 326 325 324 322 319 317 316 316 316 314 313 313 312 311
325 325 326 327 326 325 323 325 326 327 329 329 326 325 324 326 328 329 329 330 330 329 329 331 331 331 331 329 329 328 327 327 327 327 328 329 329 328 327 326 327 327 327 326 326 326 326 326 326 326 324 323 322 318 316 316 316 315 313 312 312 311 310
326 325 325 328 327 325 324 326 326 327 329 328 325 324 322 323 325 327 329 330 331 329 328 329 330 331 331 330 329 328 327 327 327 327 327 328 328 327 327 326 326 327 327 326 326 326 326 326 326 325 324 323 320 317 315 315 314 313 312 311 311 311 310
327 324 325 327 326 324 324 325 326 329 330 327 325 324 322 322 322 324 326 328 329 328 328 328 329 329 330 329 330 329 327 327 327 327 327 327 327 326 326 326 326 327 327 326 326 325 325 326 326 325 323 321 317 314 313 313 312 311 311 311 311 311 310
327 324 323 323 323 323 323 324 326 329 330 327 325 323 321 322 322 321 322 324 324 325 326 326 328 328 328 329 330 330 328 328 328 327 327 327 325 325 325 325 324 326 327 326 326 325 324 325 325 324 323 320 315 313 312 312 311 311 311 310 311 311 310
325 322 321 321 322 322 322 324 327 329 329 327 325 323 322 323 322 320 321 321 321 322 323 325 326 328 328 328 328 329 328 327 327 328 328 326 324 323 324 323 322 324 326 326 326 325 324 324 325 324 323 321 316 313 312 311 311 311 311 310 311 311 311
322 320 320 320 320 322 323 326 329 330 329 328 326 323 321 322 321 321 320 320 320 320 321 322 324 325 327 328 328 328 328 326 326 327 327 326 326 324 324 323 323 324 326 326 326 325 325 325 325 324 322 320 317 314 312 311 311 311 311 310 311 311 311
320 320 322 321 321 322 324 328 330 329 329 329 326 322 320 318 317 318 318 317 318 319 321 321 320 321 324 326 327 328 327 327 326 326 326 326 326 326 325 325 325 325 326 326 326 325 325 325 325 324 321 320 319 316 313 313 312 312 311 311 311 311 311
319 321 323 322 322 323 326 329 329 328 328 329 326 326 324 318 314 316 316 315 317 319 321 322 319 318 322 325 328 328 327 327 327 326 326 327 326 326 326 325 325 325 326 326 326 325 325 324 324 323 321 321 321 317 315 315 314 312 311 311 311 311 311
320 322 323 322 322 324 328 330 327 326 328 328 327 326 325 320 316 315 315 316 319 320 321 321 319 318 320 322 326 328 328 328 327 327 328 327 327 326 326 325 325 325 326 326 326 326 325 325 324 323 321 321 319 316 315 316 314 312 312 312 312 311 311
321 322 322 321 322 325 328 328 326 326 327 327 325 322 319 318 316 316 318 320 322 322 320 320 319 319 320 321 325 328 328 327 327 328 328 328 327 327 327 327 326 325 326 326 326 326 326 326 324 321 321 320 318 316 315 316 315 314 314 314 313 311 311
322 323 321 321 323 326 327 328 327 326 326 324 320 319 322 321 319 321 324 324 324 324 323 323 322 320 320 323 326 328 327 327 328 327 327 327 327 327 327 327 327 326 326 326 326 326 326 325 323 321 321 320 318 317 315 315 316 315 314 315 315 313 312
323 323 321 322 324 325 326 328 327 325 325 322 318 322 326 325 323 324 324 323 324 325 324 325 325 324 323 324 325 326 326 327 328 327 327 327 327 326 327 327 327 327 326 326 326 325 324 323 321 321 321 318 317 315 314 314 315 315 315 316 315 315 314
324 323 322 323 324 324 326 327 325 324 326 324 322 325 327 325 325 325 322 321 324 324 324 324 325 325 325 325 325 326 327 327 327 325 325 325 324 324 326 327 328 327 326 326 326 324 323 322 321 320 319 317 316 313 313 315 316 316 316 316 314 314 316
325 324 323 324 325 326 326 324 323 325 326 324 324 326 326 324 324 323 321 322 323 323 323 324 323 324 325 324 324 326 326 325 324 323 322 322 322 322 323 324 326 327 325 325 325 323 322 321 319 320 319 316 316 314 313 316 317 316 317 317 315 314 315
326 325 324 325 326 326 324 322 323 325 325 325 326 326 324 322 322 323 322 322 322 322 322 322 322 323 323 324 324 325 324 323 323 322 321 322 322 322 321 321 324 325 324 324 324 323 322 321 318 319 319 316 317 315 313 315 317 316 317 317 316 315 314
325 325 326 325 325 324 323 323 325 325 325 325 325 324 323 322 322 324 323 322 321 321 320 321 322 322 322 323 323 323 323 323 323 322 321 321 321 320 321 321 322 323 324 325 325 322 322 321 319 319 319 317 317 317 315 314 315 316 316 316 317 316 316
325 325 325 325 324 324 324 325 326 325 324 325 324 323 324 323 323 324 323 322 321 320 320 320 321 321 321 322 322 322 322 322 322 322 320 320 321 320 321 322 321 321 322 323 324 323 321 321 319 319 319 317 317 318 317 316 315 316 316 316 316 317 317
326 325 324 324 325 325 325 325 325 324 324 324 323 323 323 323 323 323 323 322 321 320 320 320 320 320 320 320 320 321 321 321 322 321 320 321 321 320 321 321 321 321 321 321 322 323 322 320 319 319 319 318 318 318 318 318 318 317 317 317 318 318 318
324 325 324 325 326 326 325 325 324 324 324 323 322 322 323 322 322 322 322 321 321 321 320 319 320 320 319 319 319 320 320 321 321 321 320 321 321 320 321 321 320 321 321 321 321 321 322 321 320 320 320 319 319 320 320 320 320 319 319 318 318 318 318
322 324 325 325 326 325 325 325 325 325 323 323 322 322 321 320 320 320 320 320 320 320 319 319 319 319 319 319 319 319 320 320 320 320 320 320 320 320 320 320 320 320 320 320 320 319 320 320 320 320 321 320 320 321 321 321 321 320 319 319 319 318 318
322 325 325 325 325 325 325 325 325 325 323 322 322 321 319 319 319 319 319 319 319 318 316 316 317 318 318 318 318 318 319 319 319 319 319 318 318 320 319 319 319 320 319 318 318 317 317 317 316 316 317 319 320 321 321 321 320 320 319 319 319 319 318
325 326 325 325 325 325 325 326 325 324 322 321 320 319 318 318 318 318 318 318 317 313 310 309 311 313 314 315 317 318 318 318 318 318 318 318 317 319 320 319 319 319 319 318 317 317 318 318 317 316 315 315 317 319 320 320 320 319 318 318 319 319 319
326 326 326 325 325 325 325 325 324 323 322 320 319 319 319 319 318 318 318 316 314 311 309 308 308 308 308 310 313 314 316 318 318 317 318 318 318 319 320 320 320 320 320 320 318 317 318 319 320 320 319 318 317 318 318 317 317 316 315 314 315 317 318
326 326 325 325 324 325 325 323 323 322 321 320 319 319 319 319 318 317 315 313 311 311 312 312 311 310 309 309 310 311 314 318 318 317 318 319 318 319 319 319 320 320 319 319 320 318 317 317 319 320 320 320 319 319 319 318 318 317 316 315 314 314 315
323 323 323 323 323 324 323 322 322 321 320 319 319 320 319 318 316 315 313 312 312 312 313 313 313 312 312 312 311 311 313 317 318 318 319 319 318 318 318 319 319 319 318 319 319 319 319 318 318 318 318 317 316 317 318 319 319 319 319 318 318 317 316
320 320 321 322 322 322 321 319 319 318 318 317 316 317 316 316 315 315 314 314 313 312 313 313 313 313 313 313 314 313 314 317 318 318 319 319 318 318 319 319 319 318 318 318 318 318 319 318 317 317 316 315 314 315 316 317 318 318 318 318 318 319 318
318 318 319 320 320 320 318 318 318 318 317 316 315 316 316 316 315 315 315 315 314 314 314 314 314 314 314 314 315 315 315 317 318 319 319 319 319 319 319 319 318 318 317 317 317 317 317 317 317 317 316 316 316 316 316 316 316 316 317 317 318 318 318
316 317 317 317 317 317 317 317 317 317 317 316 316 316 316 315 315 314 314 314 314 314 315 314 314 314 315 315 316 316 315 316 317 318 318 316 316 317 318 317 316 316 316 316 316 317 317 317 317 317 317 317 317 317 316 317 317 317 316 316 316 316 316
314 314 314 314 315 315 316 316 316 316 316 317 316 316 316 315 314 314 314 315 315 316 316 316 316 317 317 317 317 316 316 316 316 317 317 314 312 313 314 314 314 315 315 315 315 315 315 314 313 312 311 310 310 310 310 310 311 311 311 311 311 310 310
311 311 311 311 312 313 313 314 314 314 314 315 315 314 314 314 314 314 314 315 316 316 316 316 316 316 316 316 317 317 317 316 315 315 315 314 312 311 311 312 313 313 313 312 312 311 310 310 309 308 308 308 307 307 306 305 306 306 305 305 304 304 304
306 306 306 307 308 309 311 311 311 310 310 310 310 311 311 311 312 312 312 312 313 313 313 312 313 313 313 314 314 315 315 315 315 314 313 312 311 310 309 310 310 311 310 310 309 309 308 308 308 308 307 307 307 306 305 304 304 304 303 302 301 301 301
300 300 300 301 302 303 304 305 306 307 308 307 307 307 307 308 309 308 308 307 306 306 305 305 306 307 308 308 309 310 310 311 311 310 309 309 308 307 307 308 307 307 307 307 306 304 303 303 302 302 302 301 301 301 300 300 300 300 300 300 300 300 300